Time,TemperatureF,DewpointF,PressureIn,WindDirection,WindDirectionDegrees,WindSpeedMPH,WindSpeedGustMPH,Humidity,HourlyPrecipIn,Conditions,Clouds,dailyrainin,SoftwareType,DateUTC
2013-03-30 00:00:00,31.9,22.9,30.15,WNW,302,0.0,7.0,69,0.00,,---,0.00,VWS V14.00,2013-03-30 04:00:00,
2013-03-30 00:05:00,32.1,22.8,30.15,WNW,301,0.0,1.0,68,0.00,,---,0.00,VWS V14.00,2013-03-30 04:05:00,
2013-03-30 00:06:00,32.1,22.8,30.15,WNW,301,2.0,4.0,68,0.00,,---,0.00,VWS V14.00,2013-03-30 04:06:00,
2013-03-30 00:10:00,32.2,22.8,30.15,WNW,301,0.0,4.0,68,0.00,,---,0.00,VWS V14.00,2013-03-30 04:10:00,
2013-03-30 00:11:00,32.2,22.8,30.15,WNW,301,2.0,4.0,68,0.00,,---,0.00,VWS V14.00,2013-03-30 04:11:00,
2013-03-30 00:15:00,32.4,23.0,30.15,WNW,299,2.0,6.0,68,0.00,,---,0.00,VWS V14.00,2013-03-30 04:15:00,
2013-03-30 00:16:00,32.5,22.8,30.14,WNW,296,4.0,6.0,67,0.00,,---,0.00,VWS V14.00,2013-03-30 04:16:00,
2013-03-30 00:20:00,32.7,23.0,30.14,WNW,296,2.0,7.0,67,0.00,,---,0.00,VWS V14.00,2013-03-30 04:20:00,
2013-03-30 00:21:00,32.7,23.0,30.14,WNW,296,4.0,7.0,67,0.00,,---,0.00,VWS V14.00,2013-03-30 04:21:00,
2013-03-30 00:25:00,32.9,22.8,30.14,WNW,296,1.0,7.0,66,0.00,,---,0.00,VWS V14.00,2013-03-30 04:25:00,
2013-03-30 00:26:00,32.9,22.8,30.14,WNW,296,4.0,7.0,66,0.00,,---,0.00,VWS V14.00,2013-03-30 04:26:00,
2013-03-30 00:30:00,33.1,23.0,30.14,WNW,295,4.0,7.0,66,0.00,,---,0.00,VWS V14.00,2013-03-30 04:30:00,
2013-03-30 00:31:00,33.2,22.7,30.14,WNW,295,2.0,7.0,65,0.00,,---,0.00,VWS V14.00,2013-03-30 04:31:00,
2013-03-30 00:35:00,33.4,22.9,30.14,WNW,295,6.0,7.0,65,0.00,,---,0.00,VWS V14.00,2013-03-30 04:35:00,
2013-03-30 00:36:00,33.5,23.0,30.14,WNW,295,2.0,7.0,65,0.00,,---,0.00,VWS V14.00,2013-03-30 04:36:00,
2013-03-30 00:40:00,33.7,23.2,30.14,WNW,291,4.0,8.0,65,0.00,,---,0.00,VWS V14.00,2013-03-30 04:40:00,
2013-03-30 00:42:00,33.8,22.9,30.14,WNW,298,4.0,8.0,64,0.00,,---,0.00,VWS V14.00,2013-03-30 04:42:00,
2013-03-30 00:45:00,34.1,23.2,30.14,WNW,301,6.0,8.0,64,0.00,,---,0.00,VWS V14.00,2013-03-30 04:45:00,
2013-03-30 00:47:00,34.3,23.0,30.14,WNW,299,2.0,8.0,63,0.00,,---,0.00,VWS V14.00,2013-03-30 04:47:00,
2013-03-30 00:50:00,34.6,22.9,30.14,WNW,301,2.0,8.0,62,0.00,,---,0.00,VWS V14.00,2013-03-30 04:50:00,
2013-03-30 00:52:00,34.7,23.0,30.14,WNW,296,8.0,8.0,62,0.00,,---,0.00,VWS V14.00,2013-03-30 04:52:00,
2013-03-30 00:55:00,35.0,23.3,30.14,WNW,302,2.0,8.0,62,0.00,,---,0.00,VWS V14.00,2013-03-30 04:55:00,
2013-03-30 00:57:00,35.2,23.1,30.14,WNW,302,2.0,8.0,61,0.00,,---,0.00,VWS V14.00,2013-03-30 04:57:00,
2013-03-30 01:00:00,35.3,23.2,30.14,WNW,301,4.0,8.0,61,0.00,,---,0.00,VWS V14.00,2013-03-30 05:00:00,
2013-03-30 01:01:00,35.3,22.8,30.13,WNW,298,4.0,8.0,60,0.00,,---,0.00,VWS V14.00,2013-03-30 05:01:00,
2013-03-30 01:02:00,35.5,23.0,30.13,WNW,298,4.0,4.0,60,0.00,,---,0.00,VWS V14.00,2013-03-30 05:02:00,
2013-03-30 01:05:00,35.6,23.1,30.13,WNW,296,2.0,7.0,60,0.00,,---,0.00,VWS V14.00,2013-03-30 05:05:00,
2013-03-30 01:06:00,35.6,23.1,30.13,NW,304,6.0,8.0,60,0.00,,---,0.00,VWS V14.00,2013-03-30 05:06:00,
2013-03-30 01:07:00,35.8,23.3,30.13,WNW,302,6.0,8.0,60,0.00,,---,0.00,VWS V14.00,2013-03-30 05:07:00,
2013-03-30 01:10:00,35.9,23.0,30.13,NW,304,4.0,8.0,59,0.00,,---,0.00,VWS V14.00,2013-03-30 05:10:00,
2013-03-30 01:11:00,35.9,23.0,30.13,NW,304,2.0,8.0,59,0.00,,---,0.00,VWS V14.00,2013-03-30 05:11:00,
2013-03-30 01:12:00,35.9,23.0,30.13,NW,304,0.0,8.0,59,0.00,,---,0.00,VWS V14.00,2013-03-30 05:12:00,
2013-03-30 01:15:00,36.0,23.1,30.13,WNW,296,0.0,8.0,59,0.00,,---,0.00,VWS V14.00,2013-03-30 05:15:00,
2013-03-30 01:16:00,36.0,23.1,30.13,WNW,295,6.0,8.0,59,0.00,,---,0.00,VWS V14.00,2013-03-30 05:16:00,
2013-03-30 01:17:00,36.0,23.1,30.13,WNW,295,1.0,8.0,59,0.00,,---,0.00,VWS V14.00,2013-03-30 05:17:00,
2013-03-30 01:20:00,36.0,22.7,30.13,WNW,295,1.0,8.0,58,0.00,,---,0.00,VWS V14.00,2013-03-30 05:20:00,
2013-03-30 01:22:00,36.2,22.9,30.13,WNW,296,2.0,8.0,58,0.00,,---,0.00,VWS V14.00,2013-03-30 05:22:00,
2013-03-30 01:25:00,36.2,22.9,30.13,WNW,296,0.0,8.0,58,0.00,,---,0.00,VWS V14.00,2013-03-30 05:25:00,
2013-03-30 01:27:00,36.2,22.9,30.13,WNW,296,1.0,8.0,58,0.00,,---,0.00,VWS V14.00,2013-03-30 05:27:00,
2013-03-30 01:28:00,36.2,22.9,30.13,WNW,296,0.0,8.0,58,0.00,,---,0.00,VWS V14.00,2013-03-30 05:28:00,
2013-03-30 01:31:00,36.2,22.9,30.13,WNW,296,0.0,8.0,58,0.00,,---,0.00,VWS V14.00,2013-03-30 05:31:00,
2013-03-30 01:32:00,36.0,22.7,30.13,WNW,296,2.0,8.0,58,0.00,,---,0.00,VWS V14.00,2013-03-30 05:32:00,
2013-03-30 01:33:00,36.0,22.7,30.13,WNW,296,0.0,8.0,58,0.00,,---,0.00,VWS V14.00,2013-03-30 05:33:00,
2013-03-30 01:36:00,36.0,22.7,30.13,WNW,296,0.0,8.0,58,0.00,,---,0.00,VWS V14.00,2013-03-30 05:36:00,
2013-03-30 01:37:00,36.0,22.7,30.13,WNW,296,1.0,8.0,58,0.00,,---,0.00,VWS V14.00,2013-03-30 05:37:00,
2013-03-30 01:38:00,36.0,22.7,30.13,WNW,296,1.0,8.0,58,0.00,,---,0.00,VWS V14.00,2013-03-30 05:38:00,
2013-03-30 01:41:00,35.9,22.6,30.13,WNW,296,0.0,8.0,58,0.00,,---,0.00,VWS V14.00,2013-03-30 05:41:00,
2013-03-30 01:42:00,35.9,22.6,30.13,WNW,296,0.0,8.0,58,0.00,,---,0.00,VWS V14.00,2013-03-30 05:42:00,
2013-03-30 01:43:00,35.9,22.6,30.13,WNW,296,1.0,8.0,58,0.00,,---,0.00,VWS V14.00,2013-03-30 05:43:00,
2013-03-30 01:46:00,35.8,22.5,30.13,WNW,296,0.0,8.0,58,0.00,,---,0.00,VWS V14.00,2013-03-30 05:46:00,
2013-03-30 01:47:00,35.8,22.5,30.13,WNW,296,0.0,8.0,58,0.00,,---,0.00,VWS V14.00,2013-03-30 05:47:00,
2013-03-30 01:48:00,35.8,22.5,30.13,WNW,296,0.0,8.0,58,0.00,,---,0.00,VWS V14.00,2013-03-30 05:48:00,
2013-03-30 01:51:00,35.6,22.3,30.13,WNW,296,0.0,8.0,58,0.00,,---,0.00,VWS V14.00,2013-03-30 05:51:00,
2013-03-30 01:52:00,35.6,22.3,30.13,West,280,1.0,8.0,58,0.00,,---,0.00,VWS V14.00,2013-03-30 05:52:00,
2013-03-30 01:53:00,35.6,22.3,30.13,West,280,0.0,8.0,58,0.00,,---,0.00,VWS V14.00,2013-03-30 05:53:00,
2013-03-30 01:56:00,35.5,22.2,30.13,West,280,0.0,8.0,58,0.00,,---,0.00,VWS V14.00,2013-03-30 05:56:00,
2013-03-30 01:58:00,35.5,22.2,30.13,WNW,295,1.0,8.0,58,0.00,,---,0.00,VWS V14.00,2013-03-30 05:58:00,
2013-03-30 01:59:00,35.3,22.0,30.13,WNW,295,2.0,8.0,58,0.00,,---,0.00,VWS V14.00,2013-03-30 05:59:00,
2013-03-30 02:01:00,35.3,22.0,30.13,WNW,295,0.0,8.0,58,0.00,,---,0.00,VWS V14.00,2013-03-30 06:01:00,
2013-03-30 02:03:00,35.2,21.9,30.13,WNW,295,0.0,0.0,58,0.00,,---,0.00,VWS V14.00,2013-03-30 06:03:00,
2013-03-30 02:04:00,35.2,21.9,30.13,WNW,295,0.0,0.0,58,0.00,,---,0.00,VWS V14.00,2013-03-30 06:04:00,
2013-03-30 02:06:00,35.2,21.9,30.13,WNW,295,0.0,0.0,58,0.00,,---,0.00,VWS V14.00,2013-03-30 06:06:00,
2013-03-30 02:08:00,35.0,21.7,30.13,WNW,295,0.0,0.0,58,0.00,,---,0.00,VWS V14.00,2013-03-30 06:08:00,
2013-03-30 02:09:00,35.0,21.7,30.13,WNW,295,0.0,0.0,58,0.00,,---,0.00,VWS V14.00,2013-03-30 06:09:00,
2013-03-30 02:11:00,34.9,21.6,30.13,WNW,295,0.0,0.0,58,0.00,,---,0.00,VWS V14.00,2013-03-30 06:11:00,
2013-03-30 02:13:00,34.7,21.9,30.13,WNW,296,0.0,0.0,59,0.00,,---,0.00,VWS V14.00,2013-03-30 06:13:00,
2013-03-30 02:14:00,34.6,21.8,30.13,WNW,296,0.0,2.0,59,0.00,,---,0.00,VWS V14.00,2013-03-30 06:14:00,
2013-03-30 02:16:00,34.6,21.8,30.13,WNW,296,0.0,2.0,59,0.00,,---,0.00,VWS V14.00,2013-03-30 06:16:00,
2013-03-30 02:18:00,34.4,21.6,30.13,WNW,296,0.0,2.0,59,0.00,,---,0.00,VWS V14.00,2013-03-30 06:18:00,
2013-03-30 02:19:00,34.3,21.5,30.13,WNW,296,0.0,2.0,59,0.00,,---,0.00,VWS V14.00,2013-03-30 06:19:00,
2013-03-30 02:22:00,34.1,21.7,30.13,WNW,296,0.0,2.0,60,0.00,,---,0.00,VWS V14.00,2013-03-30 06:22:00,
2013-03-30 02:23:00,34.1,21.7,30.13,WNW,296,0.0,2.0,60,0.00,,---,0.00,VWS V14.00,2013-03-30 06:23:00,
2013-03-30 02:24:00,34.0,21.6,30.13,WNW,296,0.0,2.0,60,0.00,,---,0.00,VWS V14.00,2013-03-30 06:24:00,
2013-03-30 02:27:00,33.8,21.4,30.13,WNW,296,0.0,2.0,60,0.00,,---,0.00,VWS V14.00,2013-03-30 06:27:00,
2013-03-30 02:28:00,33.8,21.4,30.13,WNW,296,0.0,2.0,60,0.00,,---,0.00,VWS V14.00,2013-03-30 06:28:00,
2013-03-30 02:29:00,33.7,21.3,30.13,WNW,296,0.0,2.0,60,0.00,,---,0.00,VWS V14.00,2013-03-30 06:29:00,
2013-03-30 02:32:00,33.5,21.1,30.12,WNW,296,0.0,2.0,60,0.00,,---,0.00,VWS V14.00,2013-03-30 06:32:00,
2013-03-30 02:33:00,33.5,21.1,30.12,WNW,296,0.0,2.0,60,0.00,,---,0.00,VWS V14.00,2013-03-30 06:33:00,
2013-03-30 02:34:00,33.5,21.1,30.12,WNW,296,0.0,2.0,60,0.00,,---,0.00,VWS V14.00,2013-03-30 06:34:00,
2013-03-30 02:37:00,33.2,20.8,30.12,WNW,296,0.0,2.0,60,0.00,,---,0.00,VWS V14.00,2013-03-30 06:37:00,
2013-03-30 02:38:00,33.1,20.7,30.12,WNW,296,0.0,2.0,60,0.00,,---,0.00,VWS V14.00,2013-03-30 06:38:00,
2013-03-30 02:39:00,33.1,20.7,30.12,WNW,296,0.0,2.0,60,0.00,,---,0.00,VWS V14.00,2013-03-30 06:39:00,
2013-03-30 02:40:00,32.9,20.9,30.12,WNW,296,0.0,2.0,61,0.00,,---,0.00,VWS V14.00,2013-03-30 06:40:00,
2013-03-30 02:42:00,32.8,20.9,30.12,WNW,296,0.0,2.0,61,0.00,,---,0.00,VWS V14.00,2013-03-30 06:42:00,
2013-03-30 02:44:00,32.8,20.9,30.12,WNW,296,0.0,2.0,61,0.00,,---,0.00,VWS V14.00,2013-03-30 06:44:00,
2013-03-30 02:45:00,32.7,20.8,30.12,WNW,296,0.0,2.0,61,0.00,,---,0.00,VWS V14.00,2013-03-30 06:45:00,
2013-03-30 02:47:00,32.5,20.6,30.13,WNW,296,0.0,2.0,61,0.00,,---,0.00,VWS V14.00,2013-03-30 06:47:00,
2013-03-30 02:49:00,32.4,20.5,30.13,WNW,296,0.0,2.0,61,0.00,,---,0.00,VWS V14.00,2013-03-30 06:49:00,
2013-03-30 02:50:00,32.4,20.9,30.13,WNW,296,0.0,2.0,62,0.00,,---,0.00,VWS V14.00,2013-03-30 06:50:00,
2013-03-30 02:52:00,32.1,20.6,30.13,WNW,296,0.0,2.0,62,0.00,,---,0.00,VWS V14.00,2013-03-30 06:52:00,
2013-03-30 02:54:00,32.1,20.6,30.13,WNW,296,0.0,2.0,62,0.00,,---,0.00,VWS V14.00,2013-03-30 06:54:00,
2013-03-30 02:55:00,31.9,20.4,30.13,WNW,296,0.0,2.0,62,0.00,,---,0.00,VWS V14.00,2013-03-30 06:55:00,
2013-03-30 02:58:00,31.8,20.3,30.13,WNW,296,0.0,2.0,62,0.00,,---,0.00,VWS V14.00,2013-03-30 06:58:00,
2013-03-30 02:59:00,31.8,20.3,30.13,WNW,296,0.0,2.0,62,0.00,,---,0.00,VWS V14.00,2013-03-30 06:59:00,
2013-03-30 03:00:00,31.6,20.1,30.13,WNW,296,0.0,2.0,62,0.00,,---,0.00,VWS V14.00,2013-03-30 07:00:00,
2013-03-30 03:03:00,31.5,20.0,30.13,WNW,296,0.0,0.0,62,0.00,,---,0.00,VWS V14.00,2013-03-30 07:03:00,
2013-03-30 03:04:00,31.5,20.0,30.13,WNW,296,0.0,0.0,62,0.00,,---,0.00,VWS V14.00,2013-03-30 07:04:00,
2013-03-30 03:05:00,31.3,19.8,30.13,WNW,296,0.0,0.0,62,0.00,,---,0.00,VWS V14.00,2013-03-30 07:05:00,
2013-03-30 03:08:00,31.2,20.1,30.13,WNW,296,0.0,0.0,63,0.00,,---,0.00,VWS V14.00,2013-03-30 07:08:00,
2013-03-30 03:09:00,31.2,20.1,30.13,WNW,296,0.0,0.0,63,0.00,,---,0.00,VWS V14.00,2013-03-30 07:09:00,
2013-03-30 03:10:00,31.0,19.9,30.13,WNW,296,0.0,0.0,63,0.00,,---,0.00,VWS V14.00,2013-03-30 07:10:00,
2013-03-30 03:13:00,30.9,19.8,30.13,WNW,296,0.0,0.0,63,0.00,,---,0.00,VWS V14.00,2013-03-30 07:13:00,
2013-03-30 03:14:00,30.7,19.6,30.13,WNW,296,0.0,0.0,63,0.00,,---,0.00,VWS V14.00,2013-03-30 07:14:00,
2013-03-30 03:15:00,30.7,19.6,30.13,WNW,296,0.0,0.0,63,0.00,,---,0.00,VWS V14.00,2013-03-30 07:15:00,
2013-03-30 03:18:00,30.6,19.9,30.12,WNW,296,0.0,0.0,64,0.00,,---,0.00,VWS V14.00,2013-03-30 07:18:00,
2013-03-30 03:19:00,30.4,19.7,30.12,WNW,296,0.0,0.0,64,0.00,,---,0.00,VWS V14.00,2013-03-30 07:19:00,
2013-03-30 03:20:00,30.4,19.7,30.12,WNW,296,0.0,0.0,64,0.00,,---,0.00,VWS V14.00,2013-03-30 07:20:00,
2013-03-30 03:23:00,30.1,19.4,30.12,WNW,296,0.0,0.0,64,0.00,,---,0.00,VWS V14.00,2013-03-30 07:23:00,
2013-03-30 03:24:00,30.1,19.4,30.12,WNW,296,0.0,0.0,64,0.00,,---,0.00,VWS V14.00,2013-03-30 07:24:00,
2013-03-30 03:25:00,30.1,19.4,30.12,WNW,296,0.0,0.0,64,0.00,,---,0.00,VWS V14.00,2013-03-30 07:25:00,
2013-03-30 03:29:00,30.0,19.7,30.12,WNW,296,0.0,0.0,65,0.00,,---,0.00,VWS V14.00,2013-03-30 07:29:00,
2013-03-30 03:30:00,29.8,19.5,30.12,WNW,296,0.0,0.0,65,0.00,,---,0.00,VWS V14.00,2013-03-30 07:30:00,
2013-03-30 03:34:00,29.7,19.4,30.13,WNW,296,0.0,0.0,65,0.00,,---,0.00,VWS V14.00,2013-03-30 07:34:00,
2013-03-30 03:35:00,29.7,19.4,30.13,WNW,296,0.0,0.0,65,0.00,,---,0.00,VWS V14.00,2013-03-30 07:35:00,
2013-03-30 03:39:00,29.4,19.1,30.13,WNW,296,0.0,0.0,65,0.00,,---,0.00,VWS V14.00,2013-03-30 07:39:00,
2013-03-30 03:40:00,29.4,19.1,30.13,WNW,296,0.0,0.0,65,0.00,,---,0.00,VWS V14.00,2013-03-30 07:40:00,
2013-03-30 03:44:00,29.3,19.0,30.13,WNW,296,0.0,0.0,65,0.00,,---,0.00,VWS V14.00,2013-03-30 07:44:00,
2013-03-30 03:45:00,29.1,19.2,30.13,WNW,296,0.0,0.0,66,0.00,,---,0.00,VWS V14.00,2013-03-30 07:45:00,
2013-03-30 03:49:00,29.0,19.1,30.12,WNW,296,0.0,0.0,66,0.00,,---,0.00,VWS V14.00,2013-03-30 07:49:00,
2013-03-30 03:51:00,29.0,19.1,30.12,WNW,296,0.0,0.0,66,0.00,,---,0.00,VWS V14.00,2013-03-30 07:51:00,
2013-03-30 03:54:00,28.8,19.2,30.12,WNW,296,0.0,0.0,67,0.00,,---,0.00,VWS V14.00,2013-03-30 07:54:00,
2013-03-30 03:56:00,28.8,19.2,30.12,WNW,296,0.0,0.0,67,0.00,,---,0.00,VWS V14.00,2013-03-30 07:56:00,
2013-03-30 03:59:00,28.7,19.1,30.12,WNW,296,0.0,0.0,67,0.00,,---,0.00,VWS V14.00,2013-03-30 07:59:00,
2013-03-30 04:00:00,28.7,19.1,30.12,WNW,296,0.0,0.0,67,0.00,,---,0.00,VWS V14.00,2013-03-30 08:00:00,
2013-03-30 04:01:00,28.5,19.0,30.12,WNW,296,0.0,0.0,67,0.00,,---,0.00,VWS V14.00,2013-03-30 08:01:00,
2013-03-30 04:04:00,28.4,19.2,30.12,WNW,296,0.0,0.0,68,0.00,,---,0.00,VWS V14.00,2013-03-30 08:04:00,
2013-03-30 04:05:00,28.4,19.2,30.12,WNW,296,0.0,0.0,68,0.00,,---,0.00,VWS V14.00,2013-03-30 08:05:00,
2013-03-30 04:06:00,28.4,19.2,30.12,WNW,296,0.0,0.0,68,0.00,,---,0.00,VWS V14.00,2013-03-30 08:06:00,
2013-03-30 04:07:00,28.4,19.2,30.12,WNW,296,0.0,0.0,68,0.00,,---,0.00,VWS V14.00,2013-03-30 08:07:00,
2013-03-30 04:10:00,28.2,19.0,30.12,WNW,296,0.0,0.0,68,0.00,,---,0.00,VWS V14.00,2013-03-30 08:10:00,
2013-03-30 04:11:00,28.1,19.3,30.12,WNW,296,0.0,0.0,69,0.00,,---,0.00,VWS V14.00,2013-03-30 08:11:00,
2013-03-30 04:12:00,28.1,19.3,30.12,WNW,296,0.0,0.0,69,0.00,,---,0.00,VWS V14.00,2013-03-30 08:12:00,
2013-03-30 04:15:00,27.9,19.1,30.12,WNW,296,0.0,0.0,69,0.00,,---,0.00,VWS V14.00,2013-03-30 08:15:00,
2013-03-30 04:16:00,27.9,19.1,30.12,WNW,296,0.0,0.0,69,0.00,,---,0.00,VWS V14.00,2013-03-30 08:16:00,
2013-03-30 04:17:00,27.9,19.1,30.12,WNW,296,0.0,0.0,69,0.00,,---,0.00,VWS V14.00,2013-03-30 08:17:00,
2013-03-30 04:20:00,27.8,19.0,30.12,WNW,296,0.0,0.0,69,0.00,,---,0.00,VWS V14.00,2013-03-30 08:20:00,
2013-03-30 04:21:00,27.8,19.0,30.12,WNW,296,0.0,0.0,69,0.00,,---,0.00,VWS V14.00,2013-03-30 08:21:00,
2013-03-30 04:22:00,27.6,18.8,30.12,WNW,296,0.0,0.0,69,0.00,,---,0.00,VWS V14.00,2013-03-30 08:22:00,
2013-03-30 04:25:00,27.6,18.8,30.12,WNW,296,0.0,0.0,69,0.00,,---,0.00,VWS V14.00,2013-03-30 08:25:00,
2013-03-30 04:27:00,27.5,18.7,30.12,WNW,296,0.0,0.0,69,0.00,,---,0.00,VWS V14.00,2013-03-30 08:27:00,
2013-03-30 04:30:00,27.5,18.7,30.12,WNW,296,0.0,0.0,69,0.00,,---,0.00,VWS V14.00,2013-03-30 08:30:00,
2013-03-30 04:32:00,27.3,18.5,30.12,WNW,296,0.0,0.0,69,0.00,,---,0.00,VWS V14.00,2013-03-30 08:32:00,
2013-03-30 04:33:00,27.3,18.8,30.12,WNW,296,0.0,0.0,70,0.00,,---,0.00,VWS V14.00,2013-03-30 08:33:00,
2013-03-30 04:35:00,27.3,18.8,30.12,WNW,296,0.0,0.0,70,0.00,,---,0.00,VWS V14.00,2013-03-30 08:35:00,
2013-03-30 04:36:00,27.2,18.7,30.12,WNW,296,0.0,0.0,70,0.00,,---,0.00,VWS V14.00,2013-03-30 08:36:00,
2013-03-30 04:37:00,27.2,18.7,30.12,WNW,296,0.0,0.0,70,0.00,,---,0.00,VWS V14.00,2013-03-30 08:37:00,
2013-03-30 04:38:00,27.2,18.7,30.12,WNW,296,0.0,0.0,70,0.00,,---,0.00,VWS V14.00,2013-03-30 08:38:00,
2013-03-30 04:40:00,27.0,18.5,30.12,WNW,296,0.0,0.0,70,0.00,,---,0.00,VWS V14.00,2013-03-30 08:40:00,
2013-03-30 04:41:00,27.0,18.9,30.12,WNW,296,0.0,0.0,71,0.00,,---,0.00,VWS V14.00,2013-03-30 08:41:00,
2013-03-30 04:42:00,27.0,18.9,30.12,WNW,291,0.0,0.0,71,0.00,,---,0.00,VWS V14.00,2013-03-30 08:42:00,
2013-03-30 04:43:00,27.0,18.9,30.12,WNW,296,0.0,0.0,71,0.00,,---,0.00,VWS V14.00,2013-03-30 08:43:00,
2013-03-30 04:45:00,27.0,19.2,30.12,WNW,296,0.0,0.0,72,0.00,,---,0.00,VWS V14.00,2013-03-30 08:45:00,
2013-03-30 04:47:00,26.9,19.1,30.12,WNW,296,0.0,0.0,72,0.00,,---,0.00,VWS V14.00,2013-03-30 08:47:00,
2013-03-30 04:48:00,26.9,19.1,30.12,WNW,296,0.0,0.0,72,0.00,,---,0.00,VWS V14.00,2013-03-30 08:48:00,
2013-03-30 04:50:00,26.9,19.1,30.12,WNW,296,0.0,0.0,72,0.00,,---,0.00,VWS V14.00,2013-03-30 08:50:00,
2013-03-30 04:52:00,26.9,19.4,30.12,WNW,296,0.0,0.0,73,0.00,,---,0.00,VWS V14.00,2013-03-30 08:52:00,
2013-03-30 04:53:00,26.7,19.2,30.12,WNW,296,0.0,0.0,73,0.00,,---,0.00,VWS V14.00,2013-03-30 08:53:00,
2013-03-30 04:55:00,26.7,19.2,30.12,WNW,296,0.0,0.0,73,0.00,,---,0.00,VWS V14.00,2013-03-30 08:55:00,
2013-03-30 04:57:00,26.7,19.2,30.12,WNW,296,0.0,0.0,73,0.00,,---,0.00,VWS V14.00,2013-03-30 08:57:00,
2013-03-30 04:58:00,26.7,19.2,30.12,WNW,296,0.0,0.0,73,0.00,,---,0.00,VWS V14.00,2013-03-30 08:58:00,
2013-03-30 05:00:00,26.6,19.4,30.12,WNW,296,0.0,0.0,74,0.00,,---,0.00,VWS V14.00,2013-03-30 09:00:00,
2013-03-30 05:02:00,26.6,19.4,30.12,WNW,296,0.0,0.0,74,0.00,,---,0.00,VWS V14.00,2013-03-30 09:02:00,
2013-03-30 05:03:00,26.6,19.4,30.12,WNW,296,0.0,0.0,74,0.00,,---,0.00,VWS V14.00,2013-03-30 09:03:00,
2013-03-30 05:05:00,26.4,19.2,30.12,WNW,296,0.0,0.0,74,0.00,,---,0.00,VWS V14.00,2013-03-30 09:05:00,
2013-03-30 05:08:00,26.4,19.2,30.12,WNW,296,0.0,0.0,74,0.00,,---,0.00,VWS V14.00,2013-03-30 09:08:00,
2013-03-30 05:10:00,26.4,19.2,30.12,WNW,296,0.0,0.0,74,0.00,,---,0.00,VWS V14.00,2013-03-30 09:10:00,
2013-03-30 05:13:00,26.3,19.1,30.12,WNW,296,0.0,0.0,74,0.00,,---,0.00,VWS V14.00,2013-03-30 09:13:00,
2013-03-30 05:14:00,26.3,19.1,30.12,WNW,296,0.0,0.0,74,0.00,,---,0.00,VWS V14.00,2013-03-30 09:14:00,
2013-03-30 05:15:00,26.3,19.5,30.12,WNW,296,0.0,0.0,75,0.00,,---,0.00,VWS V14.00,2013-03-30 09:15:00,
2013-03-30 05:18:00,26.3,19.5,30.12,WNW,296,0.0,0.0,75,0.00,,---,0.00,VWS V14.00,2013-03-30 09:18:00,
2013-03-30 05:19:00,26.3,19.5,30.12,WNW,296,0.0,0.0,75,0.00,,---,0.00,VWS V14.00,2013-03-30 09:19:00,
2013-03-30 05:20:00,26.3,19.5,30.12,WNW,296,0.0,0.0,75,0.00,,---,0.00,VWS V14.00,2013-03-30 09:20:00,
2013-03-30 05:23:00,26.1,19.3,30.12,WNW,296,0.0,0.0,75,0.00,,---,0.00,VWS V14.00,2013-03-30 09:23:00,
2013-03-30 05:24:00,26.1,19.3,30.12,WNW,296,0.0,0.0,75,0.00,,---,0.00,VWS V14.00,2013-03-30 09:24:00,
2013-03-30 05:26:00,26.1,19.6,30.12,WNW,296,0.0,0.0,76,0.00,,---,0.00,VWS V14.00,2013-03-30 09:26:00,
2013-03-30 05:28:00,26.3,19.8,30.12,WNW,296,0.0,0.0,76,0.00,,---,0.00,VWS V14.00,2013-03-30 09:28:00,
2013-03-30 05:29:00,26.3,19.8,30.12,WNW,296,0.0,0.0,76,0.00,,---,0.00,VWS V14.00,2013-03-30 09:29:00,
2013-03-30 05:31:00,26.1,19.6,30.12,WNW,296,0.0,0.0,76,0.00,,---,0.00,VWS V14.00,2013-03-30 09:31:00,
2013-03-30 05:33:00,26.1,19.6,30.12,WNW,296,0.0,0.0,76,0.00,,---,0.00,VWS V14.00,2013-03-30 09:33:00,
2013-03-30 05:34:00,26.1,19.6,30.12,WNW,296,0.0,0.0,76,0.00,,---,0.00,VWS V14.00,2013-03-30 09:34:00,
2013-03-30 05:36:00,26.1,19.9,30.12,WNW,296,0.0,0.0,77,0.00,,---,0.00,VWS V14.00,2013-03-30 09:36:00,
2013-03-30 05:38:00,26.0,19.8,30.12,WNW,296,0.0,0.0,77,0.00,,---,0.00,VWS V14.00,2013-03-30 09:38:00,
2013-03-30 05:39:00,26.0,19.8,30.12,WNW,296,0.0,0.0,77,0.00,,---,0.00,VWS V14.00,2013-03-30 09:39:00,
2013-03-30 05:41:00,26.0,19.8,30.12,WNW,296,0.0,0.0,77,0.00,,---,0.00,VWS V14.00,2013-03-30 09:41:00,
2013-03-30 05:43:00,26.0,19.8,30.12,WNW,296,0.0,0.0,77,0.00,,---,0.00,VWS V14.00,2013-03-30 09:43:00,
2013-03-30 05:44:00,26.0,19.8,30.12,WNW,296,0.0,0.0,77,0.00,,---,0.00,VWS V14.00,2013-03-30 09:44:00,
2013-03-30 05:47:00,25.8,19.6,30.12,WNW,296,0.0,0.0,77,0.00,,---,0.00,VWS V14.00,2013-03-30 09:47:00,
2013-03-30 05:48:00,25.8,19.6,30.12,WNW,296,0.0,0.0,77,0.00,,---,0.00,VWS V14.00,2013-03-30 09:48:00,
2013-03-30 05:49:00,25.8,19.6,30.12,WNW,296,0.0,0.0,77,0.00,,---,0.00,VWS V14.00,2013-03-30 09:49:00,
2013-03-30 05:52:00,25.8,19.6,30.12,WNW,296,0.0,0.0,77,0.00,,---,0.00,VWS V14.00,2013-03-30 09:52:00,
2013-03-30 05:54:00,25.7,19.5,30.12,WNW,296,0.0,0.0,77,0.00,,---,0.00,VWS V14.00,2013-03-30 09:54:00,
2013-03-30 05:57:00,25.7,19.5,30.12,WNW,296,0.0,0.0,77,0.00,,---,0.00,VWS V14.00,2013-03-30 09:57:00,
2013-03-30 05:59:00,25.6,19.4,30.12,WNW,296,0.0,0.0,77,0.00,,---,0.00,VWS V14.00,2013-03-30 09:59:00,
2013-03-30 06:00:00,25.6,19.4,30.12,WNW,296,0.0,0.0,77,0.00,,---,0.00,VWS V14.00,2013-03-30 10:00:00,
2013-03-30 06:02:00,25.6,19.4,30.12,WNW,296,0.0,0.0,77,0.00,,---,0.00,VWS V14.00,2013-03-30 10:02:00,
2013-03-30 06:04:00,25.6,19.7,30.12,WNW,296,0.0,0.0,78,0.00,,---,0.00,VWS V14.00,2013-03-30 10:04:00,
2013-03-30 06:05:00,25.6,19.7,30.12,WNW,296,0.0,0.0,78,0.00,,---,0.00,VWS V14.00,2013-03-30 10:05:00,
2013-03-30 06:07:00,25.4,19.5,30.12,WNW,296,0.0,0.0,78,0.00,,---,0.00,VWS V14.00,2013-03-30 10:07:00,
2013-03-30 06:09:00,25.4,19.5,30.12,WNW,296,0.0,0.0,78,0.00,,---,0.00,VWS V14.00,2013-03-30 10:09:00,
2013-03-30 06:10:00,25.4,19.5,30.12,WNW,296,0.0,0.0,78,0.00,,---,0.00,VWS V14.00,2013-03-30 10:10:00,
2013-03-30 06:12:00,25.3,19.4,30.12,WNW,296,0.0,0.0,78,0.00,,---,0.00,VWS V14.00,2013-03-30 10:12:00,
2013-03-30 06:14:00,25.3,19.4,30.12,WNW,296,0.0,0.0,78,0.00,,---,0.00,VWS V14.00,2013-03-30 10:14:00,
2013-03-30 06:15:00,25.3,19.4,30.12,WNW,296,0.0,0.0,78,0.00,,---,0.00,VWS V14.00,2013-03-30 10:15:00,
2013-03-30 06:17:00,25.1,19.2,30.12,WNW,296,0.0,0.0,78,0.00,,---,0.00,VWS V14.00,2013-03-30 10:17:00,
2013-03-30 06:19:00,25.1,19.2,30.12,WNW,296,0.0,0.0,78,0.00,,---,0.00,VWS V14.00,2013-03-30 10:19:00,
2013-03-30 06:20:00,25.1,19.2,30.12,WNW,296,0.0,0.0,78,0.00,,---,0.00,VWS V14.00,2013-03-30 10:20:00,
2013-03-30 06:22:00,25.1,19.2,30.12,WNW,296,0.0,0.0,78,0.00,,---,0.00,VWS V14.00,2013-03-30 10:22:00,
2013-03-30 06:24:00,25.0,19.1,30.12,WNW,296,0.0,0.0,78,0.00,,---,0.00,VWS V14.00,2013-03-30 10:24:00,
2013-03-30 06:25:00,25.0,19.1,30.12,WNW,296,0.0,0.0,78,0.00,,---,0.00,VWS V14.00,2013-03-30 10:25:00,
2013-03-30 06:27:00,25.0,19.1,30.12,WNW,296,0.0,0.0,78,0.00,,---,0.00,VWS V14.00,2013-03-30 10:27:00,
2013-03-30 06:29:00,24.8,18.9,30.12,WNW,296,0.0,0.0,78,0.00,,---,0.00,VWS V14.00,2013-03-30 10:29:00,
2013-03-30 06:30:00,24.8,18.9,30.12,WNW,296,0.0,0.0,78,0.00,,---,0.00,VWS V14.00,2013-03-30 10:30:00,
2013-03-30 06:32:00,24.8,18.9,30.13,WNW,296,0.0,0.0,78,0.00,,---,0.00,VWS V14.00,2013-03-30 10:32:00,
2013-03-30 06:35:00,24.7,18.8,30.13,WNW,296,0.0,0.0,78,0.00,,---,0.00,VWS V14.00,2013-03-30 10:35:00,
2013-03-30 06:38:00,24.7,18.8,30.13,WNW,296,0.0,0.0,78,0.00,,---,0.00,VWS V14.00,2013-03-30 10:38:00,
2013-03-30 06:40:00,24.7,18.8,30.13,WNW,296,0.0,0.0,78,0.00,,---,0.00,VWS V14.00,2013-03-30 10:40:00,
2013-03-30 06:43:00,24.7,19.1,30.13,WNW,296,0.0,0.0,79,0.00,,---,0.00,VWS V14.00,2013-03-30 10:43:00,
2013-03-30 06:45:00,24.5,18.9,30.13,WNW,296,0.0,0.0,79,0.00,,---,0.00,VWS V14.00,2013-03-30 10:45:00,
2013-03-30 06:46:00,24.5,18.9,30.13,WNW,296,0.0,0.0,79,0.00,,---,0.00,VWS V14.00,2013-03-30 10:46:00,
2013-03-30 06:48:00,24.5,18.9,30.13,WNW,296,0.0,0.0,79,0.00,,---,0.00,VWS V14.00,2013-03-30 10:48:00,
2013-03-30 06:50:00,24.5,18.9,30.13,WNW,296,0.0,0.0,79,0.00,,---,0.00,VWS V14.00,2013-03-30 10:50:00,
2013-03-30 06:51:00,24.5,18.9,30.13,WNW,296,0.0,0.0,79,0.00,,---,0.00,VWS V14.00,2013-03-30 10:51:00,
2013-03-30 06:53:00,24.5,18.9,30.13,WNW,296,0.0,0.0,79,0.00,,---,0.00,VWS V14.00,2013-03-30 10:53:00,
2013-03-30 06:55:00,24.5,18.9,30.13,WNW,291,0.0,0.0,79,0.00,,---,0.00,VWS V14.00,2013-03-30 10:55:00,
2013-03-30 06:56:00,24.5,18.9,30.13,WNW,296,0.0,0.0,79,0.00,,---,0.00,VWS V14.00,2013-03-30 10:56:00,
2013-03-30 06:58:00,24.5,18.9,30.13,WNW,296,0.0,0.0,79,0.00,,---,0.00,VWS V14.00,2013-03-30 10:58:00,
2013-03-30 07:01:00,24.4,18.8,30.13,WNW,296,0.0,0.0,79,0.00,,---,0.00,VWS V14.00,2013-03-30 11:01:00,
2013-03-30 07:03:00,24.4,19.1,30.13,WNW,296,0.0,0.0,80,0.00,,---,0.00,VWS V14.00,2013-03-30 11:03:00,
2013-03-30 07:06:00,24.4,19.1,30.13,WNW,296,0.0,0.0,80,0.00,,---,0.00,VWS V14.00,2013-03-30 11:06:00,
2013-03-30 07:08:00,24.4,19.1,30.13,WNW,296,0.0,0.0,80,0.00,,---,0.00,VWS V14.00,2013-03-30 11:08:00,
2013-03-30 07:09:00,24.4,19.1,30.13,WNW,296,0.0,0.0,80,0.00,,---,0.00,VWS V14.00,2013-03-30 11:09:00,
2013-03-30 07:11:00,24.4,19.1,30.13,WNW,296,0.0,0.0,80,0.00,,---,0.00,VWS V14.00,2013-03-30 11:11:00,
2013-03-30 07:13:00,24.2,18.9,30.13,WNW,296,0.0,0.0,80,0.00,,---,0.00,VWS V14.00,2013-03-30 11:13:00,
2013-03-30 07:14:00,24.2,18.9,30.13,WNW,296,0.0,0.0,80,0.00,,---,0.00,VWS V14.00,2013-03-30 11:14:00,
2013-03-30 07:16:00,24.2,18.9,30.13,WNW,296,0.0,0.0,80,0.00,,---,0.00,VWS V14.00,2013-03-30 11:16:00,
2013-03-30 07:18:00,24.2,18.9,30.13,WNW,296,0.0,0.0,80,0.00,,---,0.00,VWS V14.00,2013-03-30 11:18:00,
2013-03-30 07:19:00,24.2,18.9,30.13,WNW,296,0.0,0.0,80,0.00,,---,0.00,VWS V14.00,2013-03-30 11:19:00,
2013-03-30 07:21:00,24.1,18.8,30.13,WNW,296,0.0,0.0,80,0.00,,---,0.00,VWS V14.00,2013-03-30 11:21:00,
2013-03-30 07:22:00,24.1,18.8,30.13,WNW,296,0.0,0.0,80,0.00,,---,0.00,VWS V14.00,2013-03-30 11:22:00,
2013-03-30 07:23:00,24.1,18.8,30.13,WNW,296,0.0,0.0,80,0.00,,---,0.00,VWS V14.00,2013-03-30 11:23:00,
2013-03-30 07:24:00,24.1,18.8,30.13,WNW,296,0.0,0.0,80,0.00,,---,0.00,VWS V14.00,2013-03-30 11:24:00,
2013-03-30 07:26:00,24.1,18.8,30.13,WNW,296,0.0,0.0,80,0.00,,---,0.00,VWS V14.00,2013-03-30 11:26:00,
2013-03-30 07:27:00,24.1,18.8,30.13,WNW,296,0.0,0.0,80,0.00,,---,0.00,VWS V14.00,2013-03-30 11:27:00,
2013-03-30 07:28:00,23.9,18.6,30.13,WNW,296,0.0,0.0,80,0.00,,---,0.00,VWS V14.00,2013-03-30 11:28:00,
2013-03-30 07:30:00,23.9,18.6,30.13,WNW,296,0.0,0.0,80,0.00,,---,0.00,VWS V14.00,2013-03-30 11:30:00,
2013-03-30 07:31:00,23.9,18.6,30.14,WNW,296,0.0,0.0,80,0.00,,---,0.00,VWS V14.00,2013-03-30 11:31:00,
2013-03-30 07:32:00,23.9,18.6,30.14,WNW,296,0.0,0.0,80,0.00,,---,0.00,VWS V14.00,2013-03-30 11:32:00,
2013-03-30 07:34:00,23.9,18.6,30.14,WNW,296,0.0,0.0,80,0.00,,---,0.00,VWS V14.00,2013-03-30 11:34:00,
2013-03-30 07:35:00,23.9,18.6,30.14,WNW,296,0.0,0.0,80,0.00,,---,0.00,VWS V14.00,2013-03-30 11:35:00,
2013-03-30 07:36:00,23.8,18.5,30.14,WNW,296,0.0,0.0,80,0.00,,---,0.00,VWS V14.00,2013-03-30 11:36:00,
2013-03-30 07:37:00,23.8,18.5,30.14,WNW,296,0.0,0.0,80,0.00,,---,0.00,VWS V14.00,2013-03-30 11:37:00,
2013-03-30 07:39:00,23.8,18.5,30.14,WNW,296,0.0,0.0,80,0.00,,---,0.00,VWS V14.00,2013-03-30 11:39:00,
2013-03-30 07:40:00,23.8,18.5,30.14,WNW,296,0.0,0.0,80,0.00,,---,0.00,VWS V14.00,2013-03-30 11:40:00,
2013-03-30 07:42:00,23.8,18.8,30.14,WNW,296,0.0,0.0,81,0.00,,---,0.00,VWS V14.00,2013-03-30 11:42:00,
2013-03-30 07:44:00,23.8,18.8,30.14,WNW,296,0.0,0.0,81,0.00,,---,0.00,VWS V14.00,2013-03-30 11:44:00,
2013-03-30 07:45:00,23.6,18.6,30.14,WNW,296,0.0,0.0,81,0.00,,---,0.00,VWS V14.00,2013-03-30 11:45:00,
2013-03-30 07:47:00,23.6,18.6,30.14,WNW,296,0.0,0.0,81,0.00,,---,0.00,VWS V14.00,2013-03-30 11:47:00,
2013-03-30 07:49:00,23.6,18.6,30.14,WNW,296,0.0,0.0,81,0.00,,---,0.00,VWS V14.00,2013-03-30 11:49:00,
2013-03-30 07:50:00,23.6,18.6,30.14,WNW,296,0.0,0.0,81,0.00,,---,0.00,VWS V14.00,2013-03-30 11:50:00,
2013-03-30 07:52:00,23.6,18.6,30.14,WNW,296,0.0,0.0,81,0.00,,---,0.00,VWS V14.00,2013-03-30 11:52:00,
2013-03-30 07:54:00,23.6,18.6,30.14,WNW,296,0.0,0.0,81,0.00,,---,0.00,VWS V14.00,2013-03-30 11:54:00,
2013-03-30 07:55:00,23.6,18.6,30.14,WNW,296,0.0,0.0,81,0.00,,---,0.00,VWS V14.00,2013-03-30 11:55:00,
2013-03-30 07:57:00,23.6,18.9,30.14,WNW,296,0.0,0.0,82,0.00,,---,0.00,VWS V14.00,2013-03-30 11:57:00,
2013-03-30 07:59:00,23.8,19.1,30.14,WNW,296,0.0,0.0,82,0.00,,---,0.00,VWS V14.00,2013-03-30 11:59:00,
2013-03-30 08:00:00,23.8,19.1,30.14,WNW,296,0.0,0.0,82,0.00,,---,0.00,VWS V14.00,2013-03-30 12:00:00,
2013-03-30 08:02:00,23.8,19.1,30.14,WNW,296,0.0,0.0,82,0.00,,---,0.00,VWS V14.00,2013-03-30 12:02:00,
2013-03-30 08:04:00,23.8,19.1,30.14,WNW,296,0.0,0.0,82,0.00,,---,0.00,VWS V14.00,2013-03-30 12:04:00,
2013-03-30 08:05:00,23.8,19.1,30.14,WNW,296,0.0,0.0,82,0.00,,---,0.00,VWS V14.00,2013-03-30 12:05:00,
2013-03-30 08:07:00,23.8,19.1,30.14,WNW,296,0.0,0.0,82,0.00,,---,0.00,VWS V14.00,2013-03-30 12:07:00,
2013-03-30 08:09:00,23.9,19.2,30.14,WNW,296,0.0,0.0,82,0.00,,---,0.00,VWS V14.00,2013-03-30 12:09:00,
2013-03-30 08:10:00,23.9,19.5,30.14,WNW,291,0.0,0.0,83,0.00,,---,0.00,VWS V14.00,2013-03-30 12:10:00,
2013-03-30 08:12:00,23.9,19.5,30.14,WNW,296,0.0,0.0,83,0.00,,---,0.00,VWS V14.00,2013-03-30 12:12:00,
2013-03-30 08:14:00,24.1,19.7,30.14,WNW,296,0.0,0.0,83,0.00,,---,0.00,VWS V14.00,2013-03-30 12:14:00,
2013-03-30 08:15:00,24.1,19.7,30.15,WNW,296,0.0,0.0,83,0.00,,---,0.00,VWS V14.00,2013-03-30 12:15:00,
2013-03-30 08:17:00,24.2,20.1,30.15,WNW,296,0.0,0.0,84,0.00,,---,0.00,VWS V14.00,2013-03-30 12:17:00,
2013-03-30 08:19:00,24.4,20.3,30.15,WNW,296,0.0,0.0,84,0.00,,---,0.00,VWS V14.00,2013-03-30 12:19:00,
2013-03-30 08:20:00,24.4,20.3,30.15,WNW,296,0.0,0.0,84,0.00,,---,0.00,VWS V14.00,2013-03-30 12:20:00,
2013-03-30 08:22:00,24.5,20.4,30.15,WNW,296,0.0,0.0,84,0.00,,---,0.00,VWS V14.00,2013-03-30 12:22:00,
2013-03-30 08:24:00,24.7,20.8,30.15,WNW,296,0.0,0.0,85,0.00,,---,0.00,VWS V14.00,2013-03-30 12:24:00,
2013-03-30 08:26:00,24.8,20.9,30.15,WNW,296,0.0,0.0,85,0.00,,---,0.00,VWS V14.00,2013-03-30 12:26:00,
2013-03-30 08:27:00,24.8,20.9,30.15,WNW,296,0.0,0.0,85,0.00,,---,0.00,VWS V14.00,2013-03-30 12:27:00,
2013-03-30 08:28:00,24.8,20.9,30.15,WNW,296,0.0,0.0,85,0.00,,---,0.00,VWS V14.00,2013-03-30 12:28:00,
2013-03-30 08:29:00,25.0,21.1,30.15,WNW,296,0.0,0.0,85,0.00,,---,0.00,VWS V14.00,2013-03-30 12:29:00,
2013-03-30 08:30:00,25.1,21.2,30.14,WNW,296,0.0,0.0,85,0.00,,---,0.00,VWS V14.00,2013-03-30 12:30:00,
2013-03-30 08:32:00,25.3,21.4,30.14,WNW,296,0.0,0.0,85,0.00,,---,0.00,VWS V14.00,2013-03-30 12:32:00,
2013-03-30 08:33:00,25.3,21.4,30.14,WNW,296,0.0,0.0,85,0.00,,---,0.00,VWS V14.00,2013-03-30 12:33:00,
2013-03-30 08:34:00,25.4,21.8,30.14,WNW,296,0.0,0.0,86,0.00,,---,0.00,VWS V14.00,2013-03-30 12:34:00,
2013-03-30 08:36:00,25.6,22.0,30.14,WNW,296,0.0,0.0,86,0.00,,---,0.00,VWS V14.00,2013-03-30 12:36:00,
2013-03-30 08:38:00,25.7,22.1,30.14,WNW,296,0.0,0.0,86,0.00,,---,0.00,VWS V14.00,2013-03-30 12:38:00,
2013-03-30 08:39:00,25.8,22.2,30.14,WNW,296,0.0,0.0,86,0.00,,---,0.00,VWS V14.00,2013-03-30 12:39:00,
2013-03-30 08:41:00,26.0,22.4,30.14,WNW,296,0.0,0.0,86,0.00,,---,0.00,VWS V14.00,2013-03-30 12:41:00,
2013-03-30 08:43:00,26.1,22.5,30.14,WNW,296,0.0,0.0,86,0.00,,---,0.00,VWS V14.00,2013-03-30 12:43:00,
2013-03-30 08:44:00,26.3,22.7,30.14,WNW,296,0.0,0.0,86,0.00,,---,0.00,VWS V14.00,2013-03-30 12:44:00,
2013-03-30 08:46:00,26.6,23.3,30.14,WNW,296,0.0,0.0,87,0.00,,---,0.00,VWS V14.00,2013-03-30 12:46:00,
2013-03-30 08:48:00,26.6,23.3,30.14,WNW,296,0.0,0.0,87,0.00,,---,0.00,VWS V14.00,2013-03-30 12:48:00,
2013-03-30 08:49:00,26.9,23.6,30.14,WNW,296,0.0,0.0,87,0.00,,---,0.00,VWS V14.00,2013-03-30 12:49:00,
2013-03-30 08:51:00,27.2,23.9,30.14,WNW,296,0.0,0.0,87,0.00,,---,0.00,VWS V14.00,2013-03-30 12:51:00,
2013-03-30 08:53:00,27.3,24.0,30.14,WNW,296,0.0,0.0,87,0.00,,---,0.00,VWS V14.00,2013-03-30 12:53:00,
2013-03-30 08:55:00,27.6,24.2,30.14,WNW,296,0.0,0.0,87,0.00,,---,0.00,VWS V14.00,2013-03-30 12:55:00,
2013-03-30 08:56:00,27.9,24.8,30.14,WNW,296,0.0,0.0,88,0.00,,---,0.00,VWS V14.00,2013-03-30 12:56:00,
2013-03-30 08:58:00,28.2,25.1,30.14,WNW,296,0.0,0.0,88,0.00,,---,0.00,VWS V14.00,2013-03-30 12:58:00,
2013-03-30 09:00:00,28.5,25.4,30.14,WNW,296,0.0,0.0,88,0.00,,---,0.00,VWS V14.00,2013-03-30 13:00:00,
2013-03-30 09:01:00,28.7,25.3,30.13,WNW,296,0.0,0.0,87,0.00,,---,0.00,VWS V14.00,2013-03-30 13:01:00,
2013-03-30 09:03:00,29.1,25.7,30.13,WNW,296,0.0,0.0,87,0.00,,---,0.00,VWS V14.00,2013-03-30 13:03:00,
2013-03-30 09:05:00,29.3,25.9,30.13,WNW,296,0.0,0.0,87,0.00,,---,0.00,VWS V14.00,2013-03-30 13:05:00,
2013-03-30 09:07:00,29.5,26.1,30.13,WNW,294,0.0,1.0,87,0.00,,---,0.00,VWS V14.00,2013-03-30 13:07:00,
2013-03-30 09:08:00,30.0,26.6,30.13,WNW,294,0.0,1.0,87,0.00,,---,0.00,VWS V14.00,2013-03-30 13:08:00,
2013-03-30 09:09:00,30.0,26.6,30.13,WNW,285,4.0,6.0,87,0.00,,---,0.00,VWS V14.00,2013-03-30 13:09:00,
2013-03-30 09:10:00,30.3,26.9,30.13,WNW,292,0.0,6.0,87,0.00,,---,0.00,VWS V14.00,2013-03-30 13:10:00,
2013-03-30 09:12:00,30.6,26.9,30.13,WNW,292,0.0,6.0,86,0.00,,---,0.00,VWS V14.00,2013-03-30 13:12:00,
2013-03-30 09:14:00,31.0,27.3,30.13,WNW,291,0.0,6.0,86,0.00,,---,0.00,VWS V14.00,2013-03-30 13:14:00,
2013-03-30 09:15:00,31.5,27.8,30.13,WNW,291,0.0,6.0,86,0.00,,---,0.00,VWS V14.00,2013-03-30 13:15:00,
2013-03-30 09:17:00,31.8,27.8,30.13,WNW,291,0.0,6.0,85,0.00,,---,0.00,VWS V14.00,2013-03-30 13:17:00,
2013-03-30 09:19:00,32.1,27.8,30.13,WNW,291,0.0,6.0,84,0.00,,---,0.00,VWS V14.00,2013-03-30 13:19:00,
2013-03-30 09:20:00,32.5,28.2,30.13,SW,217,2.0,6.0,84,0.00,,---,0.00,VWS V14.00,2013-03-30 13:20:00,
2013-03-30 09:22:00,32.8,28.5,30.13,SW,217,0.0,6.0,84,0.00,,---,0.00,VWS V14.00,2013-03-30 13:22:00,
2013-03-30 09:24:00,32.8,28.5,30.13,SW,217,0.0,6.0,84,0.00,,---,0.00,VWS V14.00,2013-03-30 13:24:00,
2013-03-30 09:25:00,33.5,29.2,30.13,SSW,209,0.0,6.0,84,0.00,,---,0.00,VWS V14.00,2013-03-30 13:25:00,
2013-03-30 09:27:00,34.0,28.8,30.13,SSW,208,0.0,6.0,81,0.00,,---,0.00,VWS V14.00,2013-03-30 13:27:00,
2013-03-30 09:29:00,34.4,28.9,30.13,SSW,208,0.0,6.0,80,0.00,,---,0.00,VWS V14.00,2013-03-30 13:29:00,
2013-03-30 09:31:00,34.9,29.1,30.13,SSW,200,0.0,6.0,79,0.00,,---,0.00,VWS V14.00,2013-03-30 13:31:00,
2013-03-30 09:32:00,35.0,28.9,30.13,SSW,200,0.0,6.0,78,0.00,,---,0.00,VWS V14.00,2013-03-30 13:32:00,
2013-03-30 09:34:00,35.5,29.0,30.13,SSW,200,0.0,6.0,77,0.00,,---,0.00,VWS V14.00,2013-03-30 13:34:00,
2013-03-30 09:36:00,35.9,28.8,30.13,SSW,200,4.0,6.0,75,0.00,,---,0.00,VWS V14.00,2013-03-30 13:36:00,
2013-03-30 09:37:00,36.0,28.9,30.13,SSW,200,2.0,6.0,75,0.00,,---,0.00,VWS V14.00,2013-03-30 13:37:00,
2013-03-30 09:39:00,36.3,29.1,30.13,SW,219,0.0,6.0,75,0.00,,---,0.00,VWS V14.00,2013-03-30 13:39:00,
2013-03-30 09:40:00,36.5,28.7,30.13,SW,219,0.0,6.0,73,0.00,,---,0.00,VWS V14.00,2013-03-30 13:40:00,
2013-03-30 09:42:00,36.8,28.6,30.13,SW,217,0.0,6.0,72,0.00,,---,0.00,VWS V14.00,2013-03-30 13:42:00,
2013-03-30 09:44:00,37.2,28.3,30.13,SSW,213,1.0,6.0,70,0.00,,---,0.00,VWS V14.00,2013-03-30 13:44:00,
2013-03-30 09:45:00,37.2,28.3,30.13,SSW,212,4.0,6.0,70,0.00,,---,0.00,VWS V14.00,2013-03-30 13:45:00,
2013-03-30 09:47:00,37.5,28.3,30.12,SW,216,4.0,6.0,69,0.00,,---,0.00,VWS V14.00,2013-03-30 13:47:00,
2013-03-30 09:49:00,37.8,28.2,30.12,SSW,205,0.0,6.0,68,0.00,,---,0.00,VWS V14.00,2013-03-30 13:49:00,
2013-03-30 09:50:00,37.8,28.2,30.12,SSW,205,1.0,6.0,68,0.00,,---,0.00,VWS V14.00,2013-03-30 13:50:00,
2013-03-30 09:52:00,38.0,27.7,30.12,SSW,205,0.0,6.0,66,0.00,,---,0.00,VWS V14.00,2013-03-30 13:52:00,
2013-03-30 09:53:00,38.0,27.7,30.12,SSW,205,0.0,6.0,66,0.00,,---,0.00,VWS V14.00,2013-03-30 13:53:00,
2013-03-30 09:54:00,38.2,27.5,30.12,SSW,199,2.0,6.0,65,0.00,,---,0.00,VWS V14.00,2013-03-30 13:54:00,
2013-03-30 09:55:00,38.3,27.6,30.12,SW,216,0.0,6.0,65,0.00,,---,0.00,VWS V14.00,2013-03-30 13:55:00,
2013-03-30 09:57:00,38.5,27.0,30.12,West,267,0.0,6.0,63,0.00,,---,0.00,VWS V14.00,2013-03-30 13:57:00,
2013-03-30 09:58:00,38.5,27.0,30.12,WSW,239,0.0,6.0,63,0.00,,---,0.00,VWS V14.00,2013-03-30 13:58:00,
2013-03-30 10:00:00,38.6,27.1,30.12,SW,226,2.0,6.0,63,0.00,,---,0.00,VWS V14.00,2013-03-30 14:00:00,
2013-03-30 10:02:00,39.1,26.0,30.11,SSW,212,0.0,4.0,59,0.00,,---,0.00,VWS V14.00,2013-03-30 14:02:00,
2013-03-30 10:03:00,39.1,26.0,30.11,SSW,212,0.0,4.0,59,0.00,,---,0.00,VWS V14.00,2013-03-30 14:03:00,
2013-03-30 10:05:00,39.3,25.8,30.11,South,189,2.0,6.0,58,0.00,,---,0.00,VWS V14.00,2013-03-30 14:05:00,
2013-03-30 10:08:00,39.8,25.8,30.11,South,191,4.0,6.0,57,0.00,,---,0.00,VWS V14.00,2013-03-30 14:08:00,
2013-03-30 10:10:00,39.9,25.1,30.11,SSW,212,2.0,6.0,55,0.00,,---,0.00,VWS V14.00,2013-03-30 14:10:00,
2013-03-30 10:13:00,40.2,24.0,30.11,SW,215,4.0,7.0,52,0.00,,---,0.00,VWS V14.00,2013-03-30 14:13:00,
2013-03-30 10:15:00,40.3,23.1,30.11,WSW,246,6.0,7.0,50,0.00,,---,0.00,VWS V14.00,2013-03-30 14:15:00,
2013-03-30 10:18:00,40.6,22.5,30.11,WNW,302,2.0,7.0,48,0.00,,---,0.00,VWS V14.00,2013-03-30 14:18:00,
2013-03-30 10:20:00,40.9,22.7,30.11,SW,230,1.0,7.0,48,0.00,,---,0.00,VWS V14.00,2013-03-30 14:20:00,
2013-03-30 10:23:00,41.2,23.0,30.11,WNW,294,2.0,7.0,48,0.00,,---,0.00,VWS V14.00,2013-03-30 14:23:00,
2013-03-30 10:25:00,41.3,23.1,30.11,WNW,301,1.0,7.0,48,0.00,,---,0.00,VWS V14.00,2013-03-30 14:25:00,
2013-03-30 10:28:00,41.3,23.6,30.11,WNW,299,0.0,7.0,49,0.00,,---,0.00,VWS V14.00,2013-03-30 14:28:00,
2013-03-30 10:30:00,41.5,23.3,30.11,NW,312,0.0,7.0,48,0.00,,---,0.00,VWS V14.00,2013-03-30 14:30:00,
2013-03-30 10:33:00,41.6,23.9,30.10,NW,312,2.0,7.0,49,0.00,,---,0.00,VWS V14.00,2013-03-30 14:33:00,
2013-03-30 10:35:00,41.8,24.1,30.10,SSW,199,1.0,7.0,49,0.00,,---,0.00,VWS V14.00,2013-03-30 14:35:00,
2013-03-30 10:38:00,42.2,22.9,30.10,SSW,198,1.0,8.0,46,0.00,,---,0.00,VWS V14.00,2013-03-30 14:38:00,
2013-03-30 10:39:00,42.2,22.4,30.10,SSW,199,4.0,8.0,45,0.00,,---,0.00,VWS V14.00,2013-03-30 14:39:00,
2013-03-30 10:40:00,42.3,22.5,30.10,SSW,199,2.0,8.0,45,0.00,,---,0.00,VWS V14.00,2013-03-30 14:40:00,
2013-03-30 10:41:00,42.3,22.5,30.10,SSW,199,1.0,8.0,45,0.00,,---,0.00,VWS V14.00,2013-03-30 14:41:00,
2013-03-30 10:43:00,42.5,22.7,30.10,SSW,208,0.0,8.0,45,0.00,,---,0.00,VWS V14.00,2013-03-30 14:43:00,
2013-03-30 10:44:00,42.5,22.7,30.10,SSW,208,0.0,8.0,45,0.00,,---,0.00,VWS V14.00,2013-03-30 14:44:00,
2013-03-30 10:46:00,42.6,22.8,30.10,SSW,208,0.0,8.0,45,0.00,,---,0.00,VWS V14.00,2013-03-30 14:46:00,
2013-03-30 10:48:00,42.8,23.5,30.10,SSW,202,4.0,8.0,46,0.00,,---,0.00,VWS V14.00,2013-03-30 14:48:00,
2013-03-30 10:49:00,42.8,23.0,30.10,SSW,202,0.0,8.0,45,0.00,,---,0.00,VWS V14.00,2013-03-30 14:49:00,
2013-03-30 10:51:00,42.9,23.6,30.10,SW,220,2.0,8.0,46,0.00,,---,0.00,VWS V14.00,2013-03-30 14:51:00,
2013-03-30 10:53:00,43.1,23.2,30.10,WSW,237,0.0,8.0,45,0.00,,---,0.00,VWS V14.00,2013-03-30 14:53:00,
2013-03-30 10:54:00,43.2,23.3,30.10,SSW,195,1.0,8.0,45,0.00,,---,0.00,VWS V14.00,2013-03-30 14:54:00,
2013-03-30 10:57:00,43.3,22.9,30.10,WSW,257,6.0,8.0,44,0.00,,---,0.00,VWS V14.00,2013-03-30 14:57:00,
2013-03-30 10:58:00,43.6,23.1,30.10,SW,216,0.0,8.0,44,0.00,,---,0.00,VWS V14.00,2013-03-30 14:58:00,
2013-03-30 10:59:00,43.6,22.6,30.10,SW,215,0.0,8.0,43,0.00,,---,0.00,VWS V14.00,2013-03-30 14:59:00,
2013-03-30 11:02:00,43.8,22.2,30.10,SW,215,1.0,2.0,42,0.00,,---,0.00,VWS V14.00,2013-03-30 15:02:00,
2013-03-30 11:03:00,43.9,22.9,30.10,SSW,198,8.0,8.0,43,0.00,,---,0.00,VWS V14.00,2013-03-30 15:03:00,
2013-03-30 11:04:00,44.1,22.5,30.10,SSW,193,4.0,8.0,42,0.00,,---,0.00,VWS V14.00,2013-03-30 15:04:00,
2013-03-30 11:07:00,44.1,21.9,30.10,SSW,196,0.0,8.0,41,0.00,,---,0.00,VWS V14.00,2013-03-30 15:07:00,
2013-03-30 11:09:00,44.2,22.0,30.10,SSW,212,6.0,13.0,41,0.00,,---,0.00,VWS V14.00,2013-03-30 15:09:00,
2013-03-30 11:10:00,44.3,22.1,30.10,SSW,212,2.0,13.0,41,0.00,,---,0.00,VWS V14.00,2013-03-30 15:10:00,
2013-03-30 11:12:00,44.6,23.5,30.10,SSW,205,4.0,13.0,43,0.00,,---,0.00,VWS V14.00,2013-03-30 15:12:00,
2013-03-30 11:13:00,44.6,23.5,30.10,SW,234,7.0,13.0,43,0.00,,---,0.00,VWS V14.00,2013-03-30 15:13:00,
2013-03-30 11:14:00,44.6,22.9,30.10,SSW,195,7.0,13.0,42,0.00,,---,0.00,VWS V14.00,2013-03-30 15:14:00,
2013-03-30 11:15:00,44.8,22.5,30.10,West,280,0.0,13.0,41,0.00,,---,0.00,VWS V14.00,2013-03-30 15:15:00,
2013-03-30 11:18:00,44.9,23.2,30.09,SSW,192,2.0,13.0,42,0.00,,---,0.00,VWS V14.00,2013-03-30 15:18:00,
2013-03-30 11:19:00,45.1,23.4,30.09,SSW,193,0.0,13.0,42,0.00,,---,0.00,VWS V14.00,2013-03-30 15:19:00,
2013-03-30 11:20:00,45.1,22.8,30.09,SSW,209,6.0,13.0,41,0.00,,---,0.00,VWS V14.00,2013-03-30 15:20:00,
2013-03-30 11:23:00,45.2,22.3,30.09,SSW,209,8.0,13.0,40,0.00,,---,0.00,VWS V14.00,2013-03-30 15:23:00,
2013-03-30 11:24:00,45.4,20.7,30.09,SW,226,8.0,13.0,37,0.00,,---,0.00,VWS V14.00,2013-03-30 15:24:00,
2013-03-30 11:25:00,45.4,20.0,30.09,SSW,205,8.0,13.0,36,0.00,,---,0.00,VWS V14.00,2013-03-30 15:25:00,
2013-03-30 11:28:00,45.5,20.1,30.09,SSW,208,0.0,13.0,36,0.00,,---,0.00,VWS V14.00,2013-03-30 15:28:00,
2013-03-30 11:29:00,45.5,20.8,30.09,SSW,208,2.0,13.0,37,0.00,,---,0.00,VWS V14.00,2013-03-30 15:29:00,
2013-03-30 11:30:00,45.7,21.6,30.09,SSE,155,2.0,13.0,38,0.00,,---,0.00,VWS V14.00,2013-03-30 15:30:00,
2013-03-30 11:33:00,45.7,21.6,30.09,SW,227,10.0,13.0,38,0.00,,---,0.00,VWS V14.00,2013-03-30 15:33:00,
2013-03-30 11:34:00,45.8,21.6,30.09,SSW,200,6.0,15.0,38,0.00,,---,0.00,VWS V14.00,2013-03-30 15:34:00,
2013-03-30 11:36:00,45.8,22.3,30.09,SSW,208,8.0,15.0,39,0.00,,---,0.00,VWS V14.00,2013-03-30 15:36:00,
2013-03-30 11:38:00,46.0,21.8,30.09,South,185,7.0,15.0,38,0.00,,---,0.00,VWS V14.00,2013-03-30 15:38:00,
2013-03-30 11:39:00,46.0,21.2,30.09,SW,217,8.0,15.0,37,0.00,,---,0.00,VWS V14.00,2013-03-30 15:39:00,
2013-03-30 11:40:00,46.0,21.8,30.09,SSW,212,6.0,15.0,38,0.00,,---,0.00,VWS V14.00,2013-03-30 15:40:00,
2013-03-30 11:41:00,46.0,21.8,30.09,SW,230,7.0,15.0,38,0.00,,---,0.00,VWS V14.00,2013-03-30 15:41:00,
2013-03-30 11:43:00,46.1,21.9,30.09,SSW,210,8.0,15.0,38,0.00,,---,0.00,VWS V14.00,2013-03-30 15:43:00,
2013-03-30 11:44:00,46.2,22.0,30.09,SW,230,8.0,15.0,38,0.00,,---,0.00,VWS V14.00,2013-03-30 15:44:00,
2013-03-30 11:45:00,46.2,22.6,30.09,WSW,240,9.0,15.0,39,0.00,,---,0.00,VWS V14.00,2013-03-30 15:45:00,
2013-03-30 11:46:00,46.5,22.9,30.09,SW,234,8.0,15.0,39,0.00,,---,0.00,VWS V14.00,2013-03-30 15:46:00,
2013-03-30 11:48:00,46.7,23.7,30.09,SW,222,11.0,15.0,40,0.00,,---,0.00,VWS V14.00,2013-03-30 15:48:00,
2013-03-30 11:49:00,46.8,22.5,30.09,SW,217,7.0,17.0,38,0.00,,---,0.00,VWS V14.00,2013-03-30 15:49:00,
2013-03-30 11:50:00,46.8,21.9,30.09,SW,223,7.0,17.0,37,0.00,,---,0.00,VWS V14.00,2013-03-30 15:50:00,
2013-03-30 11:51:00,46.7,21.2,30.09,SW,236,8.0,17.0,36,0.00,,---,0.00,VWS V14.00,2013-03-30 15:51:00,
2013-03-30 11:54:00,46.8,24.4,30.09,WSW,244,2.0,17.0,41,0.00,,---,0.00,VWS V14.00,2013-03-30 15:54:00,
2013-03-30 11:55:00,47.1,24.0,30.09,WSW,239,8.0,17.0,40,0.00,,---,0.00,VWS V14.00,2013-03-30 15:55:00,
2013-03-30 11:57:00,47.1,21.5,30.09,SSW,206,7.0,17.0,36,0.00,,---,0.00,VWS V14.00,2013-03-30 15:57:00,
2013-03-30 11:59:00,47.1,22.2,30.09,SW,224,8.0,17.0,37,0.00,,---,0.00,VWS V14.00,2013-03-30 15:59:00,
2013-03-30 12:00:00,47.1,21.5,30.09,SSW,206,2.0,17.0,36,0.00,,---,0.00,VWS V14.00,2013-03-30 16:00:00,
2013-03-30 12:03:00,47.3,23.0,30.09,South,181,6.0,13.0,38,0.00,,---,0.00,VWS V14.00,2013-03-30 16:03:00,
2013-03-30 12:04:00,47.3,22.4,30.09,SSE,157,4.0,13.0,37,0.00,,---,0.00,VWS V14.00,2013-03-30 16:04:00,
2013-03-30 12:05:00,47.3,21.7,30.09,SSE,164,0.0,13.0,36,0.00,,---,0.00,VWS V14.00,2013-03-30 16:05:00,
2013-03-30 12:08:00,47.6,22.0,30.09,SW,222,8.0,14.0,36,0.00,,---,0.00,VWS V14.00,2013-03-30 16:08:00,
2013-03-30 12:09:00,47.4,21.1,30.09,SW,223,2.0,14.0,35,0.00,,---,0.00,VWS V14.00,2013-03-30 16:09:00,
2013-03-30 12:10:00,47.4,21.8,30.09,WSW,241,10.0,14.0,36,0.00,,---,0.00,VWS V14.00,2013-03-30 16:10:00,
2013-03-30 12:13:00,47.3,20.4,30.09,SW,236,9.0,14.0,34,0.00,,---,0.00,VWS V14.00,2013-03-30 16:13:00,
2013-03-30 12:14:00,47.3,20.4,30.09,WNW,282,9.0,14.0,34,0.00,,---,0.00,VWS V14.00,2013-03-30 16:14:00,
2013-03-30 12:15:00,47.3,19.7,30.09,SW,234,7.0,14.0,33,0.00,,---,0.00,VWS V14.00,2013-03-30 16:15:00,
2013-03-30 12:19:00,47.3,21.0,30.07,SSW,213,8.0,14.0,35,0.00,,---,0.00,VWS V14.00,2013-03-30 16:19:00,
2013-03-30 12:20:00,47.4,20.5,30.07,SW,219,9.0,14.0,34,0.00,,---,0.00,VWS V14.00,2013-03-30 16:20:00,
2013-03-30 12:24:00,47.7,20.7,30.07,SSE,148,6.0,14.0,34,0.00,,---,0.00,VWS V14.00,2013-03-30 16:24:00,
2013-03-30 12:25:00,47.9,20.9,30.07,SSW,209,6.0,14.0,34,0.00,,---,0.00,VWS V14.00,2013-03-30 16:25:00,
2013-03-30 12:26:00,47.9,20.9,30.07,South,184,8.0,14.0,34,0.00,,---,0.00,VWS V14.00,2013-03-30 16:26:00,
2013-03-30 12:29:00,48.3,19.8,30.07,SSW,205,8.0,14.0,32,0.00,,---,0.00,VWS V14.00,2013-03-30 16:29:00,
2013-03-30 12:30:00,48.5,20.0,30.07,SSW,212,7.0,14.0,32,0.00,,---,0.00,VWS V14.00,2013-03-30 16:30:00,
2013-03-30 12:31:00,48.5,19.3,30.06,SSW,213,9.0,14.0,31,0.00,,---,0.00,VWS V14.00,2013-03-30 16:31:00,
2013-03-30 12:34:00,48.6,19.4,30.06,SSW,208,8.0,16.0,31,0.00,,---,0.00,VWS V14.00,2013-03-30 16:34:00,
2013-03-30 12:35:00,48.6,19.4,30.06,SSW,212,8.0,16.0,31,0.00,,---,0.00,VWS V14.00,2013-03-30 16:35:00,
2013-03-30 12:36:00,48.6,19.4,30.06,SSW,213,9.0,16.0,31,0.00,,---,0.00,VWS V14.00,2013-03-30 16:36:00,
2013-03-30 12:39:00,48.6,19.4,30.06,South,188,0.0,16.0,31,0.00,,---,0.00,VWS V14.00,2013-03-30 16:39:00,
2013-03-30 12:40:00,48.8,20.3,30.06,SW,215,2.0,16.0,32,0.00,,---,0.00,VWS V14.00,2013-03-30 16:40:00,
2013-03-30 12:41:00,48.8,20.3,30.06,SSW,193,6.0,16.0,32,0.00,,---,0.00,VWS V14.00,2013-03-30 16:41:00,
2013-03-30 12:44:00,48.9,20.4,30.06,SSW,212,11.0,18.0,32,0.00,,---,0.00,VWS V14.00,2013-03-30 16:44:00,
2013-03-30 12:45:00,48.9,20.4,30.06,SW,227,9.0,18.0,32,0.00,,---,0.00,VWS V14.00,2013-03-30 16:45:00,
2013-03-30 12:46:00,48.9,20.4,30.06,SW,219,7.0,18.0,32,0.00,,---,0.00,VWS V14.00,2013-03-30 16:46:00,
2013-03-30 12:49:00,49.2,21.3,30.06,SW,233,7.0,18.0,33,0.00,,---,0.00,VWS V14.00,2013-03-30 16:49:00,
2013-03-30 12:50:00,49.2,21.3,30.06,WSW,237,9.0,18.0,33,0.00,,---,0.00,VWS V14.00,2013-03-30 16:50:00,
2013-03-30 12:51:00,49.2,19.1,30.06,WSW,241,9.0,18.0,30,0.00,,---,0.00,VWS V14.00,2013-03-30 16:51:00,
2013-03-30 12:54:00,49.5,18.6,30.06,SW,215,11.0,20.0,29,0.00,,---,0.00,VWS V14.00,2013-03-30 16:54:00,
2013-03-30 12:55:00,49.5,17.8,30.06,SSW,213,10.0,20.0,28,0.00,,---,0.00,VWS V14.00,2013-03-30 16:55:00,
2013-03-30 12:56:00,49.5,17.8,30.06,SSW,205,4.0,20.0,28,0.00,,---,0.00,VWS V14.00,2013-03-30 16:56:00,
2013-03-30 12:59:00,49.4,17.7,30.06,SW,232,8.0,20.0,28,0.00,,---,0.00,VWS V14.00,2013-03-30 16:59:00,
2013-03-30 13:00:00,49.4,17.7,30.06,SSW,212,11.0,20.0,28,0.00,,---,0.00,VWS V14.00,2013-03-30 17:00:00,
2013-03-30 13:01:00,49.5,17.8,30.06,SSW,209,9.0,20.0,28,0.00,,---,0.00,VWS V14.00,2013-03-30 17:01:00,
2013-03-30 13:04:00,49.5,16.9,30.06,SW,216,11.0,18.0,27,0.00,,---,0.00,VWS V14.00,2013-03-30 17:04:00,
2013-03-30 13:05:00,49.5,16.9,30.06,SSW,208,10.0,18.0,27,0.00,,---,0.00,VWS V14.00,2013-03-30 17:05:00,
2013-03-30 13:07:00,49.6,17.0,30.06,SSW,209,8.0,18.0,27,0.00,,---,0.00,VWS V14.00,2013-03-30 17:07:00,
2013-03-30 13:09:00,49.8,18.8,30.06,SW,216,9.0,18.0,29,0.00,,---,0.00,VWS V14.00,2013-03-30 17:09:00,
2013-03-30 13:10:00,49.8,18.8,30.06,SSW,205,13.0,18.0,29,0.00,,---,0.00,VWS V14.00,2013-03-30 17:10:00,
2013-03-30 13:12:00,49.9,18.9,30.06,SSW,195,2.0,18.0,29,0.00,,---,0.00,VWS V14.00,2013-03-30 17:12:00,
2013-03-30 13:13:00,50.1,18.3,30.06,SSW,200,8.0,18.0,28,0.00,,---,0.00,VWS V14.00,2013-03-30 17:13:00,
2013-03-30 13:14:00,50.1,19.9,30.06,SW,226,10.0,18.0,30,0.00,,---,0.00,VWS V14.00,2013-03-30 17:14:00,
2013-03-30 13:15:00,50.2,18.4,30.05,WNW,284,8.0,18.0,28,0.00,,---,0.00,VWS V14.00,2013-03-30 17:15:00,
2013-03-30 13:17:00,50.5,19.5,30.05,SSW,196,7.0,18.0,29,0.00,,---,0.00,VWS V14.00,2013-03-30 17:17:00,
2013-03-30 13:18:00,50.5,21.0,30.05,SSE,167,2.0,18.0,31,0.00,,---,0.00,VWS V14.00,2013-03-30 17:18:00,
2013-03-30 13:20:00,50.8,21.3,30.05,SSW,208,6.0,18.0,31,0.00,,---,0.00,VWS V14.00,2013-03-30 17:20:00,
2013-03-30 13:22:00,51.0,19.1,30.05,SW,223,9.0,18.0,28,0.00,,---,0.00,VWS V14.00,2013-03-30 17:22:00,
2013-03-30 13:24:00,51.0,18.2,30.05,SSW,195,6.0,18.0,27,0.00,,---,0.00,VWS V14.00,2013-03-30 17:24:00,
2013-03-30 13:25:00,51.1,20.8,30.05,SSW,209,14.0,18.0,30,0.00,,---,0.00,VWS V14.00,2013-03-30 17:25:00,
2013-03-30 13:27:00,51.0,19.1,30.05,SSW,206,6.0,18.0,28,0.00,,---,0.00,VWS V14.00,2013-03-30 17:27:00,
2013-03-30 13:29:00,51.0,18.2,30.05,South,191,7.0,18.0,27,0.00,,---,0.00,VWS V14.00,2013-03-30 17:29:00,
2013-03-30 13:30:00,51.0,19.1,30.05,SSW,203,15.0,18.0,28,0.00,,---,0.00,VWS V14.00,2013-03-30 17:30:00,
2013-03-30 13:32:00,50.8,18.9,30.04,SSW,210,15.0,18.0,28,0.00,,---,0.00,VWS V14.00,2013-03-30 17:32:00,
2013-03-30 13:34:00,50.8,18.9,30.04,SW,223,15.0,18.0,28,0.00,,---,0.00,VWS V14.00,2013-03-30 17:34:00,
2013-03-30 13:35:00,50.7,18.8,30.04,WSW,251,8.0,18.0,28,0.00,,---,0.00,VWS V14.00,2013-03-30 17:35:00,
2013-03-30 13:37:00,50.8,18.9,30.04,South,185,7.0,18.0,28,0.00,,---,0.00,VWS V14.00,2013-03-30 17:37:00,
2013-03-30 13:39:00,51.0,19.1,30.04,SW,215,14.0,18.0,28,0.00,,---,0.00,VWS V14.00,2013-03-30 17:39:00,
2013-03-30 13:40:00,51.0,19.1,30.04,SSW,202,7.0,18.0,28,0.00,,---,0.00,VWS V14.00,2013-03-30 17:40:00,
2013-03-30 13:41:00,51.0,19.1,30.04,WSW,254,7.0,18.0,28,0.00,,---,0.00,VWS V14.00,2013-03-30 17:41:00,
2013-03-30 13:43:00,51.0,19.1,30.04,SW,222,18.0,18.0,28,0.00,,---,0.00,VWS V14.00,2013-03-30 17:43:00,
2013-03-30 13:44:00,51.0,18.2,30.04,SW,230,13.0,18.0,27,0.00,,---,0.00,VWS V14.00,2013-03-30 17:44:00,
2013-03-30 13:45:00,51.0,19.1,30.04,SW,232,4.0,18.0,28,0.00,,---,0.00,VWS V14.00,2013-03-30 17:45:00,
2013-03-30 13:46:00,51.0,19.1,30.04,SSW,193,0.0,18.0,28,0.00,,---,0.00,VWS V14.00,2013-03-30 17:46:00,
2013-03-30 13:48:00,51.4,21.8,30.04,SSW,203,8.0,18.0,31,0.00,,---,0.00,VWS V14.00,2013-03-30 17:48:00,
2013-03-30 13:49:00,51.6,21.2,30.04,SSW,198,6.0,18.0,30,0.00,,---,0.00,VWS V14.00,2013-03-30 17:49:00,
2013-03-30 13:50:00,51.7,21.3,30.04,SSW,203,0.0,18.0,30,0.00,,---,0.00,VWS V14.00,2013-03-30 17:50:00,
2013-03-30 13:52:00,52.0,23.1,30.04,SSW,206,2.0,18.0,32,0.00,,---,0.00,VWS V14.00,2013-03-30 17:52:00,
2013-03-30 13:53:00,52.2,20.9,30.04,SSW,205,0.0,18.0,29,0.00,,---,0.00,VWS V14.00,2013-03-30 17:53:00,
2013-03-30 13:54:00,52.2,22.5,30.04,WSW,250,0.0,18.0,31,0.00,,---,0.00,VWS V14.00,2013-03-30 17:54:00,
2013-03-30 13:56:00,52.3,20.2,30.04,WSW,258,16.0,26.0,28,0.00,,---,0.00,VWS V14.00,2013-03-30 17:56:00,
2013-03-30 13:57:00,52.2,19.2,30.04,SW,234,10.0,26.0,27,0.00,,---,0.00,VWS V14.00,2013-03-30 17:57:00,
2013-03-30 13:58:00,52.0,19.1,30.04,SW,220,9.0,26.0,27,0.00,,---,0.00,VWS V14.00,2013-03-30 17:58:00,
2013-03-30 13:59:00,52.0,19.1,30.04,SSW,205,13.0,26.0,27,0.00,,---,0.00,VWS V14.00,2013-03-30 17:59:00,
2013-03-30 14:01:00,52.0,19.9,30.04,SW,223,6.0,26.0,28,0.00,,---,0.00,VWS V14.00,2013-03-30 18:01:00,
2013-03-30 14:03:00,51.9,19.8,30.04,SSW,208,10.0,14.0,28,0.00,,---,0.00,VWS V14.00,2013-03-30 18:03:00,
2013-03-30 14:04:00,51.9,19.0,30.04,SW,224,8.0,14.0,27,0.00,,---,0.00,VWS V14.00,2013-03-30 18:04:00,
2013-03-30 14:06:00,51.9,19.0,30.04,SSW,213,8.0,16.0,27,0.00,,---,0.00,VWS V14.00,2013-03-30 18:06:00,
2013-03-30 14:08:00,52.0,19.9,30.04,SSW,203,7.0,16.0,28,0.00,,---,0.00,VWS V14.00,2013-03-30 18:08:00,
2013-03-30 14:10:00,52.2,21.7,30.04,SW,215,8.0,16.0,30,0.00,,---,0.00,VWS V14.00,2013-03-30 18:10:00,
2013-03-30 14:12:00,52.3,20.2,30.04,WSW,241,10.0,17.0,28,0.00,,---,0.00,VWS V14.00,2013-03-30 18:12:00,
2013-03-30 14:13:00,52.3,19.3,30.04,WSW,256,7.0,17.0,27,0.00,,---,0.00,VWS V14.00,2013-03-30 18:13:00,
2013-03-30 14:15:00,52.3,20.2,30.04,WNW,289,4.0,17.0,28,0.00,,---,0.00,VWS V14.00,2013-03-30 18:15:00,
2013-03-30 14:17:00,52.5,20.4,30.02,SSW,212,8.0,17.0,28,0.00,,---,0.00,VWS V14.00,2013-03-30 18:17:00,
2013-03-30 14:18:00,52.5,19.5,30.02,West,277,13.0,17.0,27,0.00,,---,0.00,VWS V14.00,2013-03-30 18:18:00,
2013-03-30 14:19:00,52.5,20.4,30.02,West,263,10.0,17.0,28,0.00,,---,0.00,VWS V14.00,2013-03-30 18:19:00,
2013-03-30 14:20:00,52.6,21.3,30.02,WSW,240,7.0,17.0,29,0.00,,---,0.00,VWS V14.00,2013-03-30 18:20:00,
2013-03-30 14:22:00,52.8,21.4,30.02,SSE,154,4.0,17.0,29,0.00,,---,0.00,VWS V14.00,2013-03-30 18:22:00,
2013-03-30 14:24:00,53.1,19.1,30.02,SSW,208,11.0,18.0,26,0.00,,---,0.00,VWS V14.00,2013-03-30 18:24:00,
2013-03-30 14:25:00,53.1,19.1,30.02,SSW,195,9.0,18.0,26,0.00,,---,0.00,VWS V14.00,2013-03-30 18:25:00,
2013-03-30 14:27:00,53.1,20.0,30.02,SW,227,6.0,18.0,27,0.00,,---,0.00,VWS V14.00,2013-03-30 18:27:00,
2013-03-30 14:29:00,53.1,20.0,30.02,SW,227,6.0,18.0,27,0.00,,---,0.00,VWS V14.00,2013-03-30 18:29:00,
2013-03-30 14:30:00,53.2,20.1,30.02,SSW,206,7.0,18.0,27,0.00,,---,0.00,VWS V14.00,2013-03-30 18:30:00,
2013-03-30 14:32:00,53.5,21.2,30.01,SSW,212,10.0,18.0,28,0.00,,---,0.00,VWS V14.00,2013-03-30 18:32:00,
2013-03-30 14:34:00,53.3,21.0,30.01,WSW,257,8.0,18.0,28,0.00,,---,0.00,VWS V14.00,2013-03-30 18:34:00,
2013-03-30 14:35:00,53.3,19.3,30.01,WNW,299,10.0,18.0,26,0.00,,---,0.00,VWS V14.00,2013-03-30 18:35:00,
2013-03-30 14:37:00,53.3,21.0,30.01,SW,219,2.0,18.0,28,0.00,,---,0.00,VWS V14.00,2013-03-30 18:37:00,
2013-03-30 14:39:00,53.5,20.4,30.01,SSW,199,7.0,18.0,27,0.00,,---,0.00,VWS V14.00,2013-03-30 18:39:00,
2013-03-30 14:40:00,53.6,20.5,30.01,SSW,213,2.0,18.0,27,0.00,,---,0.00,VWS V14.00,2013-03-30 18:40:00,
2013-03-30 14:42:00,53.8,19.7,30.01,SSE,161,4.0,18.0,26,0.00,,---,0.00,VWS V14.00,2013-03-30 18:42:00,
2013-03-30 14:44:00,53.9,19.8,30.01,SSW,213,9.0,18.0,26,0.00,,---,0.00,VWS V14.00,2013-03-30 18:44:00,
2013-03-30 14:45:00,53.9,19.8,30.01,SSW,213,9.0,18.0,26,0.00,,---,0.00,VWS V14.00,2013-03-30 18:45:00,
2013-03-30 14:48:00,54.2,19.2,30.01,SW,227,7.0,18.0,25,0.00,,---,0.00,VWS V14.00,2013-03-30 18:48:00,
2013-03-30 14:49:00,54.2,21.8,30.01,SSE,161,6.0,18.0,28,0.00,,---,0.00,VWS V14.00,2013-03-30 18:49:00,
2013-03-30 14:50:00,54.4,22.0,30.01,SSW,209,10.0,18.0,28,0.00,,---,0.00,VWS V14.00,2013-03-30 18:50:00,
2013-03-30 14:53:00,54.4,20.2,30.01,SSW,203,11.0,18.0,26,0.00,,---,0.00,VWS V14.00,2013-03-30 18:53:00,
2013-03-30 14:54:00,54.4,19.3,30.01,SW,220,13.0,18.0,25,0.00,,---,0.00,VWS V14.00,2013-03-30 18:54:00,
2013-03-30 14:55:00,54.4,20.2,30.01,SSW,195,2.0,18.0,26,0.00,,---,0.00,VWS V14.00,2013-03-30 18:55:00,
2013-03-30 14:58:00,54.4,19.3,30.01,SSW,200,8.0,18.0,25,0.00,,---,0.00,VWS V14.00,2013-03-30 18:58:00,
2013-03-30 14:59:00,54.4,20.2,30.01,SE,145,6.0,18.0,26,0.00,,---,0.00,VWS V14.00,2013-03-30 18:59:00,
2013-03-30 15:01:00,54.5,21.2,30.00,SSW,200,6.0,6.0,27,0.00,,---,0.00,VWS V14.00,2013-03-30 19:01:00,
2013-03-30 15:03:00,54.7,19.6,30.00,SSW,208,14.0,16.0,25,0.00,,---,0.00,VWS V14.00,2013-03-30 19:03:00,
2013-03-30 15:04:00,54.7,19.6,30.00,SSW,213,13.0,16.0,25,0.00,,---,0.00,VWS V14.00,2013-03-30 19:04:00,
2013-03-30 15:06:00,54.5,18.5,30.00,SSW,209,13.0,16.0,24,0.00,,---,0.00,VWS V14.00,2013-03-30 19:06:00,
2013-03-30 15:08:00,54.4,18.4,30.00,SW,219,7.0,16.0,24,0.00,,---,0.00,VWS V14.00,2013-03-30 19:08:00,
2013-03-30 15:10:00,54.4,19.3,30.00,SW,215,8.0,16.0,25,0.00,,---,0.00,VWS V14.00,2013-03-30 19:10:00,
2013-03-30 15:12:00,54.4,21.1,30.00,SSW,208,13.0,16.0,27,0.00,,---,0.00,VWS V14.00,2013-03-30 19:12:00,
2013-03-30 15:13:00,54.5,19.4,30.00,SSW,210,7.0,16.0,25,0.00,,---,0.00,VWS V14.00,2013-03-30 19:13:00,
2013-03-30 15:15:00,54.7,20.5,30.00,SSW,213,11.0,16.0,26,0.00,,---,0.00,VWS V14.00,2013-03-30 19:15:00,
2013-03-30 15:17:00,54.7,17.6,29.99,SSW,205,9.0,16.0,23,0.00,,---,0.00,VWS V14.00,2013-03-30 19:17:00,
2013-03-30 15:18:00,54.5,17.5,29.99,SW,216,4.0,16.0,23,0.00,,---,0.00,VWS V14.00,2013-03-30 19:18:00,
2013-03-30 15:20:00,54.5,20.3,29.99,West,274,15.0,16.0,26,0.00,,---,0.00,VWS V14.00,2013-03-30 19:20:00,
2013-03-30 15:22:00,54.7,22.3,29.99,SW,217,10.0,16.0,28,0.00,,---,0.00,VWS V14.00,2013-03-30 19:22:00,
2013-03-30 15:23:00,54.7,19.6,29.99,SSW,202,4.0,16.0,25,0.00,,---,0.00,VWS V14.00,2013-03-30 19:23:00,
2013-03-30 15:25:00,54.7,19.6,29.99,West,281,0.0,16.0,25,0.00,,---,0.00,VWS V14.00,2013-03-30 19:25:00,
2013-03-30 15:27:00,54.8,20.6,29.99,SSW,213,10.0,16.0,26,0.00,,---,0.00,VWS V14.00,2013-03-30 19:27:00,
2013-03-30 15:28:00,55.0,19.8,29.99,SSW,210,10.0,16.0,25,0.00,,---,0.00,VWS V14.00,2013-03-30 19:28:00,
2013-03-30 15:30:00,55.1,20.9,29.99,SSW,212,8.0,16.0,26,0.00,,---,0.00,VWS V14.00,2013-03-30 19:30:00,
2013-03-30 15:32:00,55.3,21.0,29.99,SSW,213,14.0,18.0,26,0.00,,---,0.00,VWS V14.00,2013-03-30 19:32:00,
2013-03-30 15:33:00,55.1,19.9,29.99,South,186,11.0,18.0,25,0.00,,---,0.00,VWS V14.00,2013-03-30 19:33:00,
2013-03-30 15:35:00,55.4,22.0,29.99,WNW,288,13.0,18.0,27,0.00,,---,0.00,VWS V14.00,2013-03-30 19:35:00,
2013-03-30 15:37:00,55.4,21.1,29.99,SW,230,4.0,18.0,26,0.00,,---,0.00,VWS V14.00,2013-03-30 19:37:00,
2013-03-30 15:38:00,55.4,21.1,29.99,SW,222,6.0,18.0,26,0.00,,---,0.00,VWS V14.00,2013-03-30 19:38:00,
2013-03-30 15:40:00,55.4,22.9,29.99,SSW,192,1.0,18.0,28,0.00,,---,0.00,VWS V14.00,2013-03-30 19:40:00,
2013-03-30 15:42:00,55.4,21.1,29.99,SSW,196,7.0,18.0,26,0.00,,---,0.00,VWS V14.00,2013-03-30 19:42:00,
2013-03-30 15:43:00,55.4,22.0,29.99,SW,215,9.0,18.0,27,0.00,,---,0.00,VWS V14.00,2013-03-30 19:43:00,
2013-03-30 15:45:00,55.6,22.2,29.99,SSW,196,11.0,18.0,27,0.00,,---,0.00,VWS V14.00,2013-03-30 19:45:00,
2013-03-30 15:47:00,55.6,22.2,29.98,SSW,213,14.0,18.0,27,0.00,,---,0.00,VWS V14.00,2013-03-30 19:47:00,
2013-03-30 15:48:00,55.6,21.3,29.98,WSW,250,13.0,18.0,26,0.00,,---,0.00,VWS V14.00,2013-03-30 19:48:00,
2013-03-30 15:50:00,55.6,23.0,29.98,SW,226,11.0,18.0,28,0.00,,---,0.00,VWS V14.00,2013-03-30 19:50:00,
2013-03-30 15:53:00,55.4,21.1,29.98,SSW,195,10.0,18.0,26,0.00,,---,0.00,VWS V14.00,2013-03-30 19:53:00,
2013-03-30 15:55:00,55.3,21.0,29.98,SW,217,9.0,18.0,26,0.00,,---,0.00,VWS V14.00,2013-03-30 19:55:00,
2013-03-30 15:58:00,55.1,20.9,29.98,SSW,202,13.0,18.0,26,0.00,,---,0.00,VWS V14.00,2013-03-30 19:58:00,
2013-03-30 16:00:00,55.1,22.6,29.98,SSW,202,7.0,18.0,28,0.00,,---,0.00,VWS V14.00,2013-03-30 20:00:00,
2013-03-30 16:01:00,55.3,22.8,29.98,SSW,205,2.0,2.0,28,0.00,,---,0.00,VWS V14.00,2013-03-30 20:01:00,
2013-03-30 16:03:00,55.4,22.9,29.98,SSW,213,4.0,13.0,28,0.00,,---,0.00,VWS V14.00,2013-03-30 20:03:00,
2013-03-30 16:05:00,55.6,23.0,29.98,West,278,14.0,20.0,28,0.00,,---,0.00,VWS V14.00,2013-03-30 20:05:00,
2013-03-30 16:06:00,55.7,23.1,29.98,WNW,288,10.0,20.0,28,0.00,,---,0.00,VWS V14.00,2013-03-30 20:06:00,
2013-03-30 16:08:00,55.7,22.3,29.98,SW,215,11.0,20.0,27,0.00,,---,0.00,VWS V14.00,2013-03-30 20:08:00,
2013-03-30 16:10:00,55.6,22.2,29.98,SW,236,4.0,20.0,27,0.00,,---,0.00,VWS V14.00,2013-03-30 20:10:00,
2013-03-30 16:12:00,55.6,23.0,29.98,South,189,2.0,20.0,28,0.00,,---,0.00,VWS V14.00,2013-03-30 20:12:00,
2013-03-30 16:13:00,55.4,21.1,29.98,SW,223,4.0,20.0,26,0.00,,---,0.00,VWS V14.00,2013-03-30 20:13:00,
2013-03-30 16:14:00,55.4,22.0,29.98,SSW,200,4.0,20.0,27,0.00,,---,0.00,VWS V14.00,2013-03-30 20:14:00,
2013-03-30 16:16:00,55.6,23.0,29.97,SW,217,6.0,20.0,28,0.00,,---,0.00,VWS V14.00,2013-03-30 20:16:00,
2013-03-30 16:17:00,55.6,23.0,29.97,SW,234,10.0,20.0,28,0.00,,---,0.00,VWS V14.00,2013-03-30 20:17:00,
2013-03-30 16:18:00,55.6,23.0,29.97,SSW,212,9.0,20.0,28,0.00,,---,0.00,VWS V14.00,2013-03-30 20:18:00,
2013-03-30 16:19:00,55.7,23.1,29.97,SW,234,17.0,20.0,28,0.00,,---,0.00,VWS V14.00,2013-03-30 20:19:00,
2013-03-30 16:21:00,55.6,23.0,29.97,NW,308,2.0,20.0,28,0.00,,---,0.00,VWS V14.00,2013-03-30 20:21:00,
2013-03-30 16:22:00,55.4,22.0,29.97,WSW,244,0.0,20.0,27,0.00,,---,0.00,VWS V14.00,2013-03-30 20:22:00,
2013-03-30 16:23:00,55.4,22.0,29.97,SSW,208,13.0,20.0,27,0.00,,---,0.00,VWS V14.00,2013-03-30 20:23:00,
2013-03-30 16:24:00,55.4,22.9,29.97,SSW,212,9.0,20.0,28,0.00,,---,0.00,VWS V14.00,2013-03-30 20:24:00,
2013-03-30 16:26:00,55.4,22.0,29.97,SW,219,13.0,20.0,27,0.00,,---,0.00,VWS V14.00,2013-03-30 20:26:00,
2013-03-30 16:27:00,55.4,22.9,29.97,SW,234,7.0,20.0,28,0.00,,---,0.00,VWS V14.00,2013-03-30 20:27:00,
2013-03-30 16:28:00,55.6,23.0,29.97,SW,220,9.0,20.0,28,0.00,,---,0.00,VWS V14.00,2013-03-30 20:28:00,
2013-03-30 16:29:00,55.6,22.2,29.97,SSW,212,13.0,20.0,27,0.00,,---,0.00,VWS V14.00,2013-03-30 20:29:00,
2013-03-30 16:31:00,55.4,22.0,29.96,SW,232,7.0,20.0,27,0.00,,---,0.00,VWS V14.00,2013-03-30 20:31:00,
2013-03-30 16:32:00,55.4,22.0,29.96,SW,215,13.0,20.0,27,0.00,,---,0.00,VWS V14.00,2013-03-30 20:32:00,
2013-03-30 16:33:00,55.3,21.9,29.96,SSW,213,13.0,20.0,27,0.00,,---,0.00,VWS V14.00,2013-03-30 20:33:00,
2013-03-30 16:34:00,55.1,20.9,29.96,SSW,213,8.0,20.0,26,0.00,,---,0.00,VWS V14.00,2013-03-30 20:34:00,
2013-03-30 16:36:00,55.1,21.7,29.96,SW,222,7.0,20.0,27,0.00,,---,0.00,VWS V14.00,2013-03-30 20:36:00,
2013-03-30 16:37:00,55.1,22.6,29.96,SW,234,7.0,20.0,28,0.00,,---,0.00,VWS V14.00,2013-03-30 20:37:00,
2013-03-30 16:38:00,55.0,22.5,29.96,WSW,239,16.0,20.0,28,0.00,,---,0.00,VWS V14.00,2013-03-30 20:38:00,
2013-03-30 16:39:00,55.0,21.6,29.96,SW,222,14.0,20.0,27,0.00,,---,0.00,VWS V14.00,2013-03-30 20:39:00,
2013-03-30 16:42:00,54.8,22.3,29.96,SW,217,8.0,20.0,28,0.00,,---,0.00,VWS V14.00,2013-03-30 20:42:00,
2013-03-30 16:43:00,54.8,22.3,29.96,WNW,298,2.0,20.0,28,0.00,,---,0.00,VWS V14.00,2013-03-30 20:43:00,
2013-03-30 16:44:00,54.8,22.3,29.96,SW,222,8.0,20.0,28,0.00,,---,0.00,VWS V14.00,2013-03-30 20:44:00,
2013-03-30 16:47:00,55.1,23.4,29.96,SSW,205,8.0,20.0,29,0.00,,---,0.00,VWS V14.00,2013-03-30 20:47:00,
2013-03-30 16:49:00,55.3,22.8,29.96,SW,230,10.0,20.0,28,0.00,,---,0.00,VWS V14.00,2013-03-30 20:49:00,
2013-03-30 16:52:00,55.1,21.7,29.96,SW,215,8.0,20.0,27,0.00,,---,0.00,VWS V14.00,2013-03-30 20:52:00,
2013-03-30 16:53:00,55.1,21.7,29.96,SSW,208,6.0,20.0,27,0.00,,---,0.00,VWS V14.00,2013-03-30 20:53:00,
2013-03-30 16:54:00,55.1,22.6,29.96,WNW,285,4.0,20.0,28,0.00,,---,0.00,VWS V14.00,2013-03-30 20:54:00,
2013-03-30 16:55:00,55.1,22.6,29.96,WNW,292,2.0,20.0,28,0.00,,---,0.00,VWS V14.00,2013-03-30 20:55:00,
2013-03-30 16:57:00,55.3,21.9,29.96,SSW,202,10.0,20.0,27,0.00,,---,0.00,VWS V14.00,2013-03-30 20:57:00,
2013-03-30 16:58:00,55.3,21.9,29.96,SSW,209,10.0,20.0,27,0.00,,---,0.00,VWS V14.00,2013-03-30 20:58:00,
2013-03-30 17:00:00,55.1,22.6,29.96,SSW,210,10.0,20.0,28,0.00,,---,0.00,VWS V14.00,2013-03-30 21:00:00,
2013-03-30 17:02:00,55.0,23.4,29.95,SSW,193,0.0,10.0,29,0.00,,---,0.00,VWS V14.00,2013-03-30 21:02:00,
2013-03-30 17:03:00,54.8,23.2,29.95,SW,236,10.0,14.0,29,0.00,,---,0.00,VWS V14.00,2013-03-30 21:03:00,
2013-03-30 17:05:00,54.8,22.3,29.95,SSW,210,2.0,14.0,28,0.00,,---,0.00,VWS V14.00,2013-03-30 21:05:00,
2013-03-30 17:07:00,54.7,22.3,29.95,SSW,202,10.0,14.0,28,0.00,,---,0.00,VWS V14.00,2013-03-30 21:07:00,
2013-03-30 17:09:00,54.7,23.1,29.95,SSW,208,6.0,14.0,29,0.00,,---,0.00,VWS V14.00,2013-03-30 21:09:00,
2013-03-30 17:10:00,54.7,22.3,29.95,SSW,208,10.0,14.0,28,0.00,,---,0.00,VWS V14.00,2013-03-30 21:10:00,
2013-03-30 17:12:00,54.7,23.1,29.95,SSW,210,11.0,14.0,29,0.00,,---,0.00,VWS V14.00,2013-03-30 21:12:00,
2013-03-30 17:14:00,54.7,22.3,29.95,WSW,243,10.0,18.0,28,0.00,,---,0.00,VWS V14.00,2013-03-30 21:14:00,
2013-03-30 17:15:00,54.7,22.3,29.95,SW,215,15.0,18.0,28,0.00,,---,0.00,VWS V14.00,2013-03-30 21:15:00,
2013-03-30 17:17:00,54.5,22.1,29.95,SSW,205,13.0,18.0,28,0.00,,---,0.00,VWS V14.00,2013-03-30 21:17:00,
2013-03-30 17:19:00,54.4,22.0,29.95,West,264,9.0,18.0,28,0.00,,---,0.00,VWS V14.00,2013-03-30 21:19:00,
2013-03-30 17:20:00,54.4,22.0,29.95,SSW,206,7.0,21.0,28,0.00,,---,0.00,VWS V14.00,2013-03-30 21:20:00,
2013-03-30 17:22:00,54.4,22.8,29.95,SW,233,6.0,21.0,29,0.00,,---,0.00,VWS V14.00,2013-03-30 21:22:00,
2013-03-30 17:24:00,54.2,22.6,29.95,SSW,213,14.0,21.0,29,0.00,,---,0.00,VWS V14.00,2013-03-30 21:24:00,
2013-03-30 17:25:00,54.2,22.6,29.95,SW,222,11.0,21.0,29,0.00,,---,0.00,VWS V14.00,2013-03-30 21:25:00,
2013-03-30 17:28:00,54.1,23.4,29.95,SSW,212,9.0,21.0,30,0.00,,---,0.00,VWS V14.00,2013-03-30 21:28:00,
2013-03-30 17:29:00,54.2,24.2,29.95,SW,223,10.0,21.0,31,0.00,,---,0.00,VWS V14.00,2013-03-30 21:29:00,
2013-03-30 17:30:00,54.2,24.2,29.95,SW,217,9.0,21.0,31,0.00,,---,0.00,VWS V14.00,2013-03-30 21:30:00,
2013-03-30 17:33:00,54.2,22.6,29.94,SSW,208,7.0,21.0,29,0.00,,---,0.00,VWS V14.00,2013-03-30 21:33:00,
2013-03-30 17:34:00,54.2,23.5,29.94,SW,215,7.0,21.0,30,0.00,,---,0.00,VWS V14.00,2013-03-30 21:34:00,
2013-03-30 17:35:00,54.1,23.4,29.94,SSW,205,8.0,21.0,30,0.00,,---,0.00,VWS V14.00,2013-03-30 21:35:00,
2013-03-30 17:38:00,54.2,24.2,29.94,SW,224,10.0,21.0,31,0.00,,---,0.00,VWS V14.00,2013-03-30 21:38:00,
2013-03-30 17:39:00,54.2,24.2,29.94,SW,217,11.0,21.0,31,0.00,,---,0.00,VWS V14.00,2013-03-30 21:39:00,
2013-03-30 17:40:00,54.1,24.2,29.94,SSW,202,7.0,21.0,31,0.00,,---,0.00,VWS V14.00,2013-03-30 21:40:00,
2013-03-30 17:41:00,54.1,24.2,29.94,SSW,206,9.0,21.0,31,0.00,,---,0.00,VWS V14.00,2013-03-30 21:41:00,
2013-03-30 17:43:00,53.9,24.0,29.94,SSW,199,7.0,21.0,31,0.00,,---,0.00,VWS V14.00,2013-03-30 21:43:00,
2013-03-30 17:44:00,53.9,24.0,29.94,SSW,200,8.0,21.0,31,0.00,,---,0.00,VWS V14.00,2013-03-30 21:44:00,
2013-03-30 17:46:00,53.9,24.0,29.94,SSW,205,7.0,21.0,31,0.00,,---,0.00,VWS V14.00,2013-03-30 21:46:00,
2013-03-30 17:48:00,53.9,24.0,29.94,SW,234,10.0,21.0,31,0.00,,---,0.00,VWS V14.00,2013-03-30 21:48:00,
2013-03-30 17:49:00,53.8,23.9,29.94,SSW,210,9.0,21.0,31,0.00,,---,0.00,VWS V14.00,2013-03-30 21:49:00,
2013-03-30 17:51:00,53.8,23.9,29.94,SW,220,6.0,21.0,31,0.00,,---,0.00,VWS V14.00,2013-03-30 21:51:00,
2013-03-30 17:52:00,53.8,23.9,29.94,SSW,210,9.0,21.0,31,0.00,,---,0.00,VWS V14.00,2013-03-30 21:52:00,
2013-03-30 17:53:00,53.6,23.7,29.94,SSW,206,10.0,21.0,31,0.00,,---,0.00,VWS V14.00,2013-03-30 21:53:00,
2013-03-30 17:54:00,53.6,23.7,29.94,SW,220,6.0,21.0,31,0.00,,---,0.00,VWS V14.00,2013-03-30 21:54:00,
2013-03-30 17:56:00,53.5,22.9,29.94,SSW,196,4.0,21.0,30,0.00,,---,0.00,VWS V14.00,2013-03-30 21:56:00,
2013-03-30 17:57:00,53.5,24.4,29.94,SW,220,13.0,21.0,32,0.00,,---,0.00,VWS V14.00,2013-03-30 21:57:00,
2013-03-30 17:59:00,53.5,24.4,29.94,South,175,2.0,21.0,32,0.00,,---,0.00,VWS V14.00,2013-03-30 21:59:00,
2013-03-30 18:01:00,53.5,25.1,29.93,SW,220,9.0,21.0,33,0.00,,---,0.00,VWS V14.00,2013-03-30 22:01:00,
2013-03-30 18:02:00,53.5,23.6,29.93,SSW,213,7.0,14.0,31,0.00,,---,0.00,VWS V14.00,2013-03-30 22:02:00,
2013-03-30 18:04:00,53.5,23.6,29.93,WSW,256,8.0,18.0,31,0.00,,---,0.00,VWS V14.00,2013-03-30 22:04:00,
2013-03-30 18:05:00,53.5,23.6,29.93,SSW,206,14.0,18.0,31,0.00,,---,0.00,VWS V14.00,2013-03-30 22:05:00,
2013-03-30 18:06:00,53.5,23.6,29.93,SW,217,13.0,18.0,31,0.00,,---,0.00,VWS V14.00,2013-03-30 22:06:00,
2013-03-30 18:07:00,53.3,23.5,29.93,SW,216,7.0,18.0,31,0.00,,---,0.00,VWS V14.00,2013-03-30 22:07:00,
2013-03-30 18:09:00,53.3,23.5,29.93,SSW,210,8.0,18.0,31,0.00,,---,0.00,VWS V14.00,2013-03-30 22:09:00,
2013-03-30 18:10:00,53.3,23.5,29.93,SW,215,8.0,18.0,31,0.00,,---,0.00,VWS V14.00,2013-03-30 22:10:00,
2013-03-30 18:11:00,53.3,23.5,29.93,WSW,253,4.0,18.0,31,0.00,,---,0.00,VWS V14.00,2013-03-30 22:11:00,
2013-03-30 18:13:00,53.2,24.1,29.93,SSW,209,14.0,18.0,32,0.00,,---,0.00,VWS V14.00,2013-03-30 22:13:00,
2013-03-30 18:14:00,53.2,24.1,29.93,SSW,202,8.0,18.0,32,0.00,,---,0.00,VWS V14.00,2013-03-30 22:14:00,
2013-03-30 18:15:00,53.2,24.1,29.93,SW,227,6.0,18.0,32,0.00,,---,0.00,VWS V14.00,2013-03-30 22:15:00,
2013-03-30 18:17:00,53.2,24.9,29.93,SSW,199,7.0,18.0,33,0.00,,---,0.00,VWS V14.00,2013-03-30 22:17:00,
2013-03-30 18:18:00,53.2,24.1,29.93,SW,215,8.0,18.0,32,0.00,,---,0.00,VWS V14.00,2013-03-30 22:18:00,
2013-03-30 18:19:00,53.2,23.4,29.93,SW,219,11.0,18.0,31,0.00,,---,0.00,VWS V14.00,2013-03-30 22:19:00,
2013-03-30 18:20:00,53.2,23.4,29.93,SW,215,10.0,18.0,31,0.00,,---,0.00,VWS V14.00,2013-03-30 22:20:00,
2013-03-30 18:22:00,53.2,24.1,29.93,South,181,2.0,18.0,32,0.00,,---,0.00,VWS V14.00,2013-03-30 22:22:00,
2013-03-30 18:23:00,53.2,23.4,29.93,SSW,205,4.0,18.0,31,0.00,,---,0.00,VWS V14.00,2013-03-30 22:23:00,
2013-03-30 18:24:00,53.1,24.0,29.93,SW,233,7.0,18.0,32,0.00,,---,0.00,VWS V14.00,2013-03-30 22:24:00,
2013-03-30 18:25:00,53.1,24.8,29.93,WSW,251,6.0,18.0,33,0.00,,---,0.00,VWS V14.00,2013-03-30 22:25:00,
2013-03-30 18:27:00,53.1,24.0,29.93,SW,222,11.0,18.0,32,0.00,,---,0.00,VWS V14.00,2013-03-30 22:27:00,
2013-03-30 18:28:00,53.1,24.8,29.93,SW,215,4.0,18.0,33,0.00,,---,0.00,VWS V14.00,2013-03-30 22:28:00,
2013-03-30 18:29:00,53.1,24.8,29.93,SW,222,6.0,18.0,33,0.00,,---,0.00,VWS V14.00,2013-03-30 22:29:00,
2013-03-30 18:30:00,53.1,24.8,29.93,SW,226,4.0,18.0,33,0.00,,---,0.00,VWS V14.00,2013-03-30 22:30:00,
2013-03-30 18:32:00,53.1,24.8,29.93,SSW,199,7.0,18.0,33,0.00,,---,0.00,VWS V14.00,2013-03-30 22:32:00,
2013-03-30 18:33:00,53.1,24.8,29.93,SW,229,8.0,18.0,33,0.00,,---,0.00,VWS V14.00,2013-03-30 22:33:00,
2013-03-30 18:34:00,53.1,25.5,29.93,SSW,213,9.0,18.0,34,0.00,,---,0.00,VWS V14.00,2013-03-30 22:34:00,
2013-03-30 18:35:00,52.9,24.6,29.93,SSW,213,8.0,18.0,33,0.00,,---,0.00,VWS V14.00,2013-03-30 22:35:00,
2013-03-30 18:37:00,52.9,24.6,29.93,SW,215,7.0,18.0,33,0.00,,---,0.00,VWS V14.00,2013-03-30 22:37:00,
2013-03-30 18:38:00,52.9,24.6,29.93,SW,215,4.0,18.0,33,0.00,,---,0.00,VWS V14.00,2013-03-30 22:38:00,
2013-03-30 18:39:00,52.9,24.6,29.93,SSW,208,0.0,18.0,33,0.00,,---,0.00,VWS V14.00,2013-03-30 22:39:00,
2013-03-30 18:40:00,52.9,24.6,29.93,SW,215,2.0,18.0,33,0.00,,---,0.00,VWS V14.00,2013-03-30 22:40:00,
2013-03-30 18:42:00,52.9,25.3,29.93,SSW,210,7.0,18.0,34,0.00,,---,0.00,VWS V14.00,2013-03-30 22:42:00,
2013-03-30 18:43:00,52.9,25.3,29.93,WSW,237,10.0,18.0,34,0.00,,---,0.00,VWS V14.00,2013-03-30 22:43:00,
2013-03-30 18:44:00,52.9,24.6,29.93,SSW,208,7.0,18.0,33,0.00,,---,0.00,VWS V14.00,2013-03-30 22:44:00,
2013-03-30 18:45:00,52.9,24.6,29.92,SSW,205,11.0,18.0,33,0.00,,---,0.00,VWS V14.00,2013-03-30 22:45:00,
2013-03-30 18:47:00,52.8,25.2,29.92,SW,215,6.0,18.0,34,0.00,,---,0.00,VWS V14.00,2013-03-30 22:47:00,
2013-03-30 18:48:00,52.8,25.2,29.92,SW,233,2.0,18.0,34,0.00,,---,0.00,VWS V14.00,2013-03-30 22:48:00,
2013-03-30 18:49:00,52.8,25.2,29.92,WNW,285,4.0,18.0,34,0.00,,---,0.00,VWS V14.00,2013-03-30 22:49:00,
2013-03-30 18:50:00,52.8,25.2,29.92,SW,236,11.0,18.0,34,0.00,,---,0.00,VWS V14.00,2013-03-30 22:50:00,
2013-03-30 18:52:00,52.8,25.2,29.92,SW,216,4.0,18.0,34,0.00,,---,0.00,VWS V14.00,2013-03-30 22:52:00,
2013-03-30 18:53:00,52.8,25.9,29.92,SW,227,4.0,18.0,35,0.00,,---,0.00,VWS V14.00,2013-03-30 22:53:00,
2013-03-30 18:54:00,52.6,25.8,29.92,SSW,199,6.0,18.0,35,0.00,,---,0.00,VWS V14.00,2013-03-30 22:54:00,
2013-03-30 18:56:00,52.6,25.0,29.92,SSW,212,7.0,18.0,34,0.00,,---,0.00,VWS V14.00,2013-03-30 22:56:00,
2013-03-30 18:57:00,52.6,25.0,29.92,SSW,199,6.0,18.0,34,0.00,,---,0.00,VWS V14.00,2013-03-30 22:57:00,
2013-03-30 18:59:00,52.6,25.8,29.92,SSW,210,0.0,18.0,35,0.00,,---,0.00,VWS V14.00,2013-03-30 22:59:00,
2013-03-30 19:01:00,52.5,25.7,29.92,SSW,212,11.0,18.0,35,0.00,,---,0.00,VWS V14.00,2013-03-30 23:01:00,
2013-03-30 19:02:00,52.5,25.7,29.92,SSW,209,14.0,14.0,35,0.00,,---,0.00,VWS V14.00,2013-03-30 23:02:00,
2013-03-30 19:04:00,52.5,25.7,29.92,SSW,212,2.0,14.0,35,0.00,,---,0.00,VWS V14.00,2013-03-30 23:04:00,
2013-03-30 19:05:00,52.5,25.7,29.92,SSW,206,7.0,14.0,35,0.00,,---,0.00,VWS V14.00,2013-03-30 23:05:00,
2013-03-30 19:06:00,52.5,25.7,29.92,SW,216,4.0,14.0,35,0.00,,---,0.00,VWS V14.00,2013-03-30 23:06:00,
2013-03-30 19:08:00,52.5,25.7,29.92,SSW,213,8.0,14.0,35,0.00,,---,0.00,VWS V14.00,2013-03-30 23:08:00,
2013-03-30 19:09:00,52.5,25.7,29.92,SSW,209,1.0,14.0,35,0.00,,---,0.00,VWS V14.00,2013-03-30 23:09:00,
2013-03-30 19:10:00,52.3,26.2,29.92,SSW,198,2.0,14.0,36,0.00,,---,0.00,VWS V14.00,2013-03-30 23:10:00,
2013-03-30 19:12:00,52.3,25.5,29.92,SSW,208,9.0,14.0,35,0.00,,---,0.00,VWS V14.00,2013-03-30 23:12:00,
2013-03-30 19:13:00,52.3,25.5,29.92,South,189,7.0,14.0,35,0.00,,---,0.00,VWS V14.00,2013-03-30 23:13:00,
2013-03-30 19:14:00,52.3,25.5,29.92,South,191,6.0,14.0,35,0.00,,---,0.00,VWS V14.00,2013-03-30 23:14:00,
2013-03-30 19:15:00,52.3,26.2,29.92,SSW,202,4.0,14.0,36,0.00,,---,0.00,VWS V14.00,2013-03-30 23:15:00,
2013-03-30 19:17:00,52.2,26.1,29.92,SSW,206,8.0,14.0,36,0.00,,---,0.00,VWS V14.00,2013-03-30 23:17:00,
2013-03-30 19:18:00,52.2,26.1,29.92,SW,215,0.0,14.0,36,0.00,,---,0.00,VWS V14.00,2013-03-30 23:18:00,
2013-03-30 19:19:00,52.2,26.1,29.92,SSW,209,8.0,14.0,36,0.00,,---,0.00,VWS V14.00,2013-03-30 23:19:00,
2013-03-30 19:20:00,52.2,26.1,29.92,SSW,199,4.0,14.0,36,0.00,,---,0.00,VWS V14.00,2013-03-30 23:20:00,
2013-03-30 19:22:00,52.0,26.5,29.92,SSW,196,7.0,14.0,37,0.00,,---,0.00,VWS V14.00,2013-03-30 23:22:00,
2013-03-30 19:23:00,52.0,26.5,29.92,SSW,193,4.0,14.0,37,0.00,,---,0.00,VWS V14.00,2013-03-30 23:23:00,
2013-03-30 19:24:00,52.0,26.5,29.92,SSW,208,0.0,14.0,37,0.00,,---,0.00,VWS V14.00,2013-03-30 23:24:00,
2013-03-30 19:25:00,52.0,26.5,29.92,SSW,196,6.0,14.0,37,0.00,,---,0.00,VWS V14.00,2013-03-30 23:25:00,
2013-03-30 19:27:00,51.9,26.5,29.92,SSW,199,10.0,14.0,37,0.00,,---,0.00,VWS V14.00,2013-03-30 23:27:00,
2013-03-30 19:29:00,51.9,27.1,29.92,WSW,239,6.0,14.0,38,0.00,,---,0.00,VWS V14.00,2013-03-30 23:29:00,
2013-03-30 19:30:00,51.9,27.1,29.92,SW,219,6.0,14.0,38,0.00,,---,0.00,VWS V14.00,2013-03-30 23:30:00,
2013-03-30 19:33:00,51.7,26.9,29.92,SSW,203,7.0,14.0,38,0.00,,---,0.00,VWS V14.00,2013-03-30 23:33:00,
2013-03-30 19:34:00,51.7,26.9,29.92,SW,219,1.0,14.0,38,0.00,,---,0.00,VWS V14.00,2013-03-30 23:34:00,
2013-03-30 19:35:00,51.7,26.9,29.92,SSW,212,8.0,14.0,38,0.00,,---,0.00,VWS V14.00,2013-03-30 23:35:00,
2013-03-30 19:38:00,51.6,27.5,29.92,SSW,213,4.0,14.0,39,0.00,,---,0.00,VWS V14.00,2013-03-30 23:38:00,
2013-03-30 19:39:00,51.6,27.5,29.92,SW,220,2.0,14.0,39,0.00,,---,0.00,VWS V14.00,2013-03-30 23:39:00,
2013-03-30 19:40:00,51.6,27.5,29.92,SSW,206,7.0,14.0,39,0.00,,---,0.00,VWS V14.00,2013-03-30 23:40:00,
2013-03-30 19:43:00,51.4,27.3,29.92,SSW,209,8.0,14.0,39,0.00,,---,0.00,VWS V14.00,2013-03-30 23:43:00,
2013-03-30 19:44:00,51.4,27.3,29.92,SW,216,7.0,14.0,39,0.00,,---,0.00,VWS V14.00,2013-03-30 23:44:00,
2013-03-30 19:45:00,51.4,27.3,29.92,SSW,196,6.0,14.0,39,0.00,,---,0.00,VWS V14.00,2013-03-30 23:45:00,
2013-03-30 19:48:00,51.3,27.8,29.92,SSW,193,0.0,14.0,40,0.00,,---,0.00,VWS V14.00,2013-03-30 23:48:00,
2013-03-30 19:49:00,51.3,27.8,29.92,SW,219,7.0,14.0,40,0.00,,---,0.00,VWS V14.00,2013-03-30 23:49:00,
2013-03-30 19:50:00,51.3,27.8,29.92,SW,216,7.0,14.0,40,0.00,,---,0.00,VWS V14.00,2013-03-30 23:50:00,
2013-03-30 19:53:00,51.1,27.6,29.92,SSW,208,6.0,14.0,40,0.00,,---,0.00,VWS V14.00,2013-03-30 23:53:00,
2013-03-30 19:54:00,51.1,27.6,29.92,SSW,213,4.0,14.0,40,0.00,,---,0.00,VWS V14.00,2013-03-30 23:54:00,
2013-03-30 19:55:00,51.0,27.5,29.92,SSW,202,8.0,14.0,40,0.00,,---,0.00,VWS V14.00,2013-03-30 23:55:00,
2013-03-30 19:58:00,51.0,28.1,29.92,SSW,209,2.0,14.0,41,0.00,,---,0.00,VWS V14.00,2013-03-30 23:58:00,
2013-03-30 19:59:00,51.0,28.1,29.92,SSW,202,6.0,14.0,41,0.00,,---,0.00,VWS V14.00,2013-03-30 23:59:00,
2013-03-30 20:00:00,50.8,28.0,29.92,SSW,205,4.0,14.0,41,0.00,,---,0.00,VWS V14.00,2013-03-31 00:00:00,
2013-03-30 20:03:00,50.7,27.9,29.92,South,169,4.0,7.0,41,0.00,,---,0.00,VWS V14.00,2013-03-31 00:03:00,
2013-03-30 20:04:00,50.7,27.9,29.92,SSW,195,2.0,7.0,41,0.00,,---,0.00,VWS V14.00,2013-03-31 00:04:00,
2013-03-30 20:05:00,50.7,27.9,29.92,SSW,200,2.0,7.0,41,0.00,,---,0.00,VWS V14.00,2013-03-31 00:05:00,
2013-03-30 20:06:00,50.5,28.3,29.92,SSW,199,2.0,7.0,42,0.00,,---,0.00,VWS V14.00,2013-03-31 00:06:00,
2013-03-30 20:08:00,50.5,28.3,29.92,South,186,0.0,7.0,42,0.00,,---,0.00,VWS V14.00,2013-03-31 00:08:00,
2013-03-30 20:09:00,50.5,28.3,29.92,South,186,1.0,7.0,42,0.00,,---,0.00,VWS V14.00,2013-03-31 00:09:00,
2013-03-30 20:10:00,50.4,28.2,29.92,South,191,2.0,7.0,42,0.00,,---,0.00,VWS V14.00,2013-03-31 00:10:00,
2013-03-30 20:12:00,50.4,28.2,29.92,SSW,206,1.0,7.0,42,0.00,,---,0.00,VWS V14.00,2013-03-31 00:12:00,
2013-03-30 20:13:00,50.2,28.0,29.92,SSW,206,0.0,7.0,42,0.00,,---,0.00,VWS V14.00,2013-03-31 00:13:00,
2013-03-30 20:14:00,50.2,28.0,29.92,SSW,206,0.0,7.0,42,0.00,,---,0.00,VWS V14.00,2013-03-31 00:14:00,
2013-03-30 20:15:00,50.2,28.0,29.92,SSW,206,2.0,7.0,42,0.00,,---,0.00,VWS V14.00,2013-03-31 00:15:00,
2013-03-30 20:17:00,50.1,27.9,29.91,SSW,206,1.0,7.0,42,0.00,,---,0.00,VWS V14.00,2013-03-31 00:17:00,
2013-03-30 20:18:00,50.1,28.5,29.91,SSW,206,0.0,7.0,43,0.00,,---,0.00,VWS V14.00,2013-03-31 00:18:00,
2013-03-30 20:19:00,50.1,28.5,29.91,SSW,199,1.0,7.0,43,0.00,,---,0.00,VWS V14.00,2013-03-31 00:19:00,
2013-03-30 20:20:00,49.9,28.3,29.91,South,175,0.0,7.0,43,0.00,,---,0.00,VWS V14.00,2013-03-31 00:20:00,
2013-03-30 20:22:00,49.9,28.3,29.91,South,175,1.0,7.0,43,0.00,,---,0.00,VWS V14.00,2013-03-31 00:22:00,
2013-03-30 20:23:00,49.9,28.3,29.91,South,179,1.0,7.0,43,0.00,,---,0.00,VWS V14.00,2013-03-31 00:23:00,
2013-03-30 20:24:00,49.8,28.2,29.91,South,185,2.0,7.0,43,0.00,,---,0.00,VWS V14.00,2013-03-31 00:24:00,
2013-03-30 20:25:00,49.8,28.2,29.91,South,189,0.0,7.0,43,0.00,,---,0.00,VWS V14.00,2013-03-31 00:25:00,
2013-03-30 20:27:00,49.8,28.8,29.91,South,189,0.0,7.0,44,0.00,,---,0.00,VWS V14.00,2013-03-31 00:27:00,
2013-03-30 20:29:00,49.6,28.6,29.91,South,184,2.0,7.0,44,0.00,,---,0.00,VWS V14.00,2013-03-31 00:29:00,
2013-03-30 20:30:00,49.5,28.5,29.91,SSW,195,1.0,7.0,44,0.00,,---,0.00,VWS V14.00,2013-03-31 00:30:00,
2013-03-30 20:32:00,49.5,28.5,29.91,South,178,1.0,7.0,44,0.00,,---,0.00,VWS V14.00,2013-03-31 00:32:00,
2013-03-30 20:34:00,49.4,29.0,29.91,South,174,1.0,7.0,45,0.00,,---,0.00,VWS V14.00,2013-03-31 00:34:00,
2013-03-30 20:36:00,49.4,29.0,29.91,South,184,1.0,7.0,45,0.00,,---,0.00,VWS V14.00,2013-03-31 00:36:00,
2013-03-30 20:37:00,49.2,28.8,29.91,South,184,0.0,7.0,45,0.00,,---,0.00,VWS V14.00,2013-03-31 00:37:00,
2013-03-30 20:39:00,49.2,28.8,29.91,South,182,1.0,7.0,45,0.00,,---,0.00,VWS V14.00,2013-03-31 00:39:00,
2013-03-30 20:41:00,49.1,28.7,29.91,South,191,1.0,7.0,45,0.00,,---,0.00,VWS V14.00,2013-03-31 00:41:00,
2013-03-30 20:42:00,48.9,29.0,29.91,SSW,192,2.0,7.0,46,0.00,,---,0.00,VWS V14.00,2013-03-31 00:42:00,
2013-03-30 20:44:00,48.9,29.0,29.91,South,181,2.0,7.0,46,0.00,,---,0.00,VWS V14.00,2013-03-31 00:44:00,
2013-03-30 20:46:00,48.8,29.0,29.90,South,191,0.0,7.0,46,0.00,,---,0.00,VWS V14.00,2013-03-31 00:46:00,
2013-03-30 20:47:00,48.8,29.0,29.90,South,188,1.0,7.0,46,0.00,,---,0.00,VWS V14.00,2013-03-31 00:47:00,
2013-03-30 20:49:00,48.8,29.0,29.90,SSW,199,6.0,7.0,46,0.00,,---,0.00,VWS V14.00,2013-03-31 00:49:00,
2013-03-30 20:51:00,48.6,29.3,29.90,SSW,202,2.0,7.0,47,0.00,,---,0.00,VWS V14.00,2013-03-31 00:51:00,
2013-03-30 20:53:00,48.6,29.3,29.90,SSW,193,2.0,7.0,47,0.00,,---,0.00,VWS V14.00,2013-03-31 00:53:00,
2013-03-30 20:54:00,48.5,29.2,29.90,SSW,192,4.0,7.0,47,0.00,,---,0.00,VWS V14.00,2013-03-31 00:54:00,
2013-03-30 20:55:00,48.5,29.2,29.90,SSW,192,2.0,7.0,47,0.00,,---,0.00,VWS V14.00,2013-03-31 00:55:00,
2013-03-30 20:57:00,48.5,29.7,29.90,SSW,199,1.0,7.0,48,0.00,,---,0.00,VWS V14.00,2013-03-31 00:57:00,
2013-03-30 20:58:00,48.3,29.5,29.90,South,186,0.0,7.0,48,0.00,,---,0.00,VWS V14.00,2013-03-31 00:58:00,
2013-03-30 20:59:00,48.3,29.5,29.90,South,188,0.0,7.0,48,0.00,,---,0.00,VWS V14.00,2013-03-31 00:59:00,
2013-03-30 21:00:00,48.3,29.5,29.90,South,186,0.0,7.0,48,0.00,,---,0.00,VWS V14.00,2013-03-31 01:00:00,
2013-03-30 21:02:00,48.2,29.5,29.91,SSW,199,1.0,6.0,48,0.00,,---,0.00,VWS V14.00,2013-03-31 01:02:00,
2013-03-30 21:03:00,48.2,29.5,29.91,SSW,199,2.0,6.0,48,0.00,,---,0.00,VWS V14.00,2013-03-31 01:03:00,
2013-03-30 21:04:00,48.2,30.0,29.91,SSW,200,4.0,7.0,49,0.00,,---,0.00,VWS V14.00,2013-03-31 01:04:00,
2013-03-30 21:05:00,48.2,30.0,29.91,SSW,199,4.0,7.0,49,0.00,,---,0.00,VWS V14.00,2013-03-31 01:05:00,
2013-03-30 21:07:00,48.0,29.8,29.91,SSW,199,4.0,7.0,49,0.00,,---,0.00,VWS V14.00,2013-03-31 01:07:00,
2013-03-30 21:08:00,48.0,29.8,29.91,SSW,199,0.0,7.0,49,0.00,,---,0.00,VWS V14.00,2013-03-31 01:08:00,
2013-03-30 21:09:00,48.0,29.8,29.91,SSW,199,2.0,7.0,49,0.00,,---,0.00,VWS V14.00,2013-03-31 01:09:00,
2013-03-30 21:10:00,48.0,29.8,29.91,SSW,199,4.0,7.0,49,0.00,,---,0.00,VWS V14.00,2013-03-31 01:10:00,
2013-03-30 21:12:00,47.9,30.2,29.91,South,189,2.0,7.0,50,0.00,,---,0.00,VWS V14.00,2013-03-31 01:12:00,
2013-03-30 21:13:00,47.9,30.2,29.91,South,189,0.0,7.0,50,0.00,,---,0.00,VWS V14.00,2013-03-31 01:13:00,
2013-03-30 21:14:00,47.9,30.2,29.91,South,189,0.0,7.0,50,0.00,,---,0.00,VWS V14.00,2013-03-31 01:14:00,
2013-03-30 21:15:00,47.9,30.2,29.91,South,178,0.0,7.0,50,0.00,,---,0.00,VWS V14.00,2013-03-31 01:15:00,
2013-03-30 21:17:00,47.7,30.0,29.90,South,179,1.0,7.0,50,0.00,,---,0.00,VWS V14.00,2013-03-31 01:17:00,
2013-03-30 21:18:00,47.7,30.0,29.90,South,179,0.0,7.0,50,0.00,,---,0.00,VWS V14.00,2013-03-31 01:18:00,
2013-03-30 21:19:00,47.7,30.0,29.90,South,179,0.0,7.0,50,0.00,,---,0.00,VWS V14.00,2013-03-31 01:19:00,
2013-03-30 21:20:00,47.7,30.0,29.90,South,179,0.0,7.0,50,0.00,,---,0.00,VWS V14.00,2013-03-31 01:20:00,
2013-03-30 21:22:00,47.6,29.9,29.90,South,172,0.0,7.0,50,0.00,,---,0.00,VWS V14.00,2013-03-31 01:22:00,
2013-03-30 21:23:00,47.6,29.9,29.90,South,172,0.0,7.0,50,0.00,,---,0.00,VWS V14.00,2013-03-31 01:23:00,
2013-03-30 21:24:00,47.6,29.9,29.90,South,169,2.0,7.0,50,0.00,,---,0.00,VWS V14.00,2013-03-31 01:24:00,
2013-03-30 21:25:00,47.4,30.2,29.90,South,171,2.0,7.0,51,0.00,,---,0.00,VWS V14.00,2013-03-31 01:25:00,
2013-03-30 21:28:00,47.4,30.2,29.90,South,184,0.0,7.0,51,0.00,,---,0.00,VWS V14.00,2013-03-31 01:28:00,
2013-03-30 21:29:00,47.3,30.1,29.90,South,188,2.0,7.0,51,0.00,,---,0.00,VWS V14.00,2013-03-31 01:29:00,
2013-03-30 21:30:00,47.3,30.1,29.89,South,178,1.0,7.0,51,0.00,,---,0.00,VWS V14.00,2013-03-31 01:30:00,
2013-03-30 21:33:00,47.1,30.4,29.89,South,178,1.0,7.0,52,0.00,,---,0.00,VWS V14.00,2013-03-31 01:33:00,
2013-03-30 21:34:00,47.1,30.4,29.89,South,178,2.0,7.0,52,0.00,,---,0.00,VWS V14.00,2013-03-31 01:34:00,
2013-03-30 21:35:00,47.1,30.4,29.89,South,175,0.0,7.0,52,0.00,,---,0.00,VWS V14.00,2013-03-31 01:35:00,
2013-03-30 21:38:00,47.0,30.3,29.89,SSE,151,0.0,7.0,52,0.00,,---,0.00,VWS V14.00,2013-03-31 01:38:00,
2013-03-30 21:39:00,47.0,30.3,29.89,SSE,167,0.0,7.0,52,0.00,,---,0.00,VWS V14.00,2013-03-31 01:39:00,
2013-03-30 21:40:00,47.0,30.3,29.89,SSE,167,0.0,7.0,52,0.00,,---,0.00,VWS V14.00,2013-03-31 01:40:00,
2013-03-30 21:43:00,46.8,30.1,29.89,SSE,164,1.0,7.0,52,0.00,,---,0.00,VWS V14.00,2013-03-31 01:43:00,
2013-03-30 21:44:00,46.8,30.1,29.89,SSE,167,0.0,7.0,52,0.00,,---,0.00,VWS V14.00,2013-03-31 01:44:00,
2013-03-30 21:45:00,46.8,30.6,29.89,SSE,167,0.0,7.0,53,0.00,,---,0.00,VWS V14.00,2013-03-31 01:45:00,
2013-03-30 21:48:00,46.7,30.5,29.89,SSE,167,0.0,7.0,53,0.00,,---,0.00,VWS V14.00,2013-03-31 01:48:00,
2013-03-30 21:49:00,46.7,30.5,29.89,SSE,167,0.0,7.0,53,0.00,,---,0.00,VWS V14.00,2013-03-31 01:49:00,
2013-03-30 21:51:00,46.7,30.5,29.89,SSE,167,0.0,7.0,53,0.00,,---,0.00,VWS V14.00,2013-03-31 01:51:00,
2013-03-30 21:53:00,46.5,30.3,29.89,SSE,167,0.0,7.0,53,0.00,,---,0.00,VWS V14.00,2013-03-31 01:53:00,
2013-03-30 21:54:00,46.5,30.3,29.89,SSE,167,0.0,7.0,53,0.00,,---,0.00,VWS V14.00,2013-03-31 01:54:00,
2013-03-30 21:56:00,46.5,30.8,29.89,SSE,167,0.0,7.0,54,0.00,,---,0.00,VWS V14.00,2013-03-31 01:56:00,
2013-03-30 21:58:00,46.4,30.7,29.89,SSE,167,0.0,7.0,54,0.00,,---,0.00,VWS V14.00,2013-03-31 01:58:00,
2013-03-30 21:59:00,46.4,30.7,29.89,SSE,168,1.0,7.0,54,0.00,,---,0.00,VWS V14.00,2013-03-31 01:59:00,
2013-03-30 22:01:00,46.4,30.7,29.89,SSE,168,0.0,0.0,54,0.00,,---,0.00,VWS V14.00,2013-03-31 02:01:00,
2013-03-30 22:03:00,46.4,30.7,29.89,SSE,168,0.0,2.0,54,0.00,,---,0.00,VWS V14.00,2013-03-31 02:03:00,
2013-03-30 22:04:00,46.4,30.7,29.89,SSE,168,0.0,2.0,54,0.00,,---,0.00,VWS V14.00,2013-03-31 02:04:00,
2013-03-30 22:07:00,46.2,30.9,29.89,SSE,168,0.0,2.0,55,0.00,,---,0.00,VWS V14.00,2013-03-31 02:07:00,
2013-03-30 22:09:00,46.2,30.9,29.89,SSE,168,0.0,2.0,55,0.00,,---,0.00,VWS V14.00,2013-03-31 02:09:00,
2013-03-30 22:10:00,46.1,30.9,29.89,SSE,168,0.0,2.0,55,0.00,,---,0.00,VWS V14.00,2013-03-31 02:10:00,
2013-03-30 22:12:00,46.1,30.9,29.89,SSE,168,0.0,2.0,55,0.00,,---,0.00,VWS V14.00,2013-03-31 02:12:00,
2013-03-30 22:14:00,46.1,30.9,29.89,SSE,168,0.0,2.0,55,0.00,,---,0.00,VWS V14.00,2013-03-31 02:14:00,
2013-03-30 22:15:00,46.1,30.9,29.89,SSE,168,0.0,2.0,55,0.00,,---,0.00,VWS V14.00,2013-03-31 02:15:00,
2013-03-30 22:17:00,46.0,30.8,29.88,SSE,168,0.0,2.0,55,0.00,,---,0.00,VWS V14.00,2013-03-31 02:17:00,
2013-03-30 22:19:00,46.0,30.8,29.88,SSE,168,0.0,2.0,55,0.00,,---,0.00,VWS V14.00,2013-03-31 02:19:00,
2013-03-30 22:20:00,46.0,30.8,29.88,SSE,168,0.0,2.0,55,0.00,,---,0.00,VWS V14.00,2013-03-31 02:20:00,
2013-03-30 22:22:00,45.8,31.0,29.88,SSE,168,0.0,2.0,56,0.00,,---,0.00,VWS V14.00,2013-03-31 02:22:00,
2013-03-30 22:24:00,45.8,31.0,29.88,SSE,168,0.0,4.0,56,0.00,,---,0.00,VWS V14.00,2013-03-31 02:24:00,
2013-03-30 22:25:00,45.7,30.9,29.88,SSE,168,0.0,4.0,56,0.00,,---,0.00,VWS V14.00,2013-03-31 02:25:00,
2013-03-30 22:28:00,45.7,30.9,29.88,SSE,168,0.0,4.0,56,0.00,,---,0.00,VWS V14.00,2013-03-31 02:28:00,
2013-03-30 22:30:00,45.5,30.7,29.88,SSE,168,0.0,4.0,56,0.00,,---,0.00,VWS V14.00,2013-03-31 02:30:00,
2013-03-30 22:31:00,45.5,30.7,29.87,SSE,168,0.0,4.0,56,0.00,,---,0.00,VWS V14.00,2013-03-31 02:31:00,
2013-03-30 22:33:00,45.4,30.6,29.87,SSE,168,0.0,4.0,56,0.00,,---,0.00,VWS V14.00,2013-03-31 02:33:00,
2013-03-30 22:35:00,45.4,30.6,29.87,SSE,168,0.0,4.0,56,0.00,,---,0.00,VWS V14.00,2013-03-31 02:35:00,
2013-03-30 22:36:00,45.2,30.5,29.87,SSE,168,0.0,4.0,56,0.00,,---,0.00,VWS V14.00,2013-03-31 02:36:00,
2013-03-30 22:38:00,45.2,30.5,29.87,SSE,168,0.0,4.0,56,0.00,,---,0.00,VWS V14.00,2013-03-31 02:38:00,
2013-03-30 22:40:00,45.1,30.4,29.87,SSE,168,0.0,4.0,56,0.00,,---,0.00,VWS V14.00,2013-03-31 02:40:00,
2013-03-30 22:41:00,45.1,30.4,29.87,South,178,1.0,6.0,56,0.00,,---,0.00,VWS V14.00,2013-03-31 02:41:00,
2013-03-30 22:43:00,44.9,30.6,29.87,SSE,167,0.0,6.0,57,0.00,,---,0.00,VWS V14.00,2013-03-31 02:43:00,
2013-03-30 22:45:00,44.8,30.5,29.87,SSE,167,0.0,6.0,57,0.00,,---,0.00,VWS V14.00,2013-03-31 02:45:00,
2013-03-30 22:47:00,44.6,30.8,29.86,SSE,167,0.0,6.0,58,0.00,,---,0.00,VWS V14.00,2013-03-31 02:47:00,
2013-03-30 22:48:00,44.6,30.8,29.86,SSE,167,0.0,6.0,58,0.00,,---,0.00,VWS V14.00,2013-03-31 02:48:00,
2013-03-30 22:50:00,44.5,30.7,29.86,SSE,167,0.0,6.0,58,0.00,,---,0.00,VWS V14.00,2013-03-31 02:50:00,
2013-03-30 22:51:00,44.5,30.7,29.86,SSE,167,0.0,6.0,58,0.00,,---,0.00,VWS V14.00,2013-03-31 02:51:00,
2013-03-30 22:52:00,44.5,30.7,29.86,SSE,158,0.0,6.0,58,0.00,,---,0.00,VWS V14.00,2013-03-31 02:52:00,
2013-03-30 22:54:00,44.5,30.7,29.86,SSE,150,0.0,6.0,58,0.00,,---,0.00,VWS V14.00,2013-03-31 02:54:00,
2013-03-30 22:56:00,44.3,30.5,29.86,SSE,150,0.0,6.0,58,0.00,,---,0.00,VWS V14.00,2013-03-31 02:56:00,
2013-03-30 22:57:00,44.3,30.5,29.86,SSE,150,0.0,6.0,58,0.00,,---,0.00,VWS V14.00,2013-03-31 02:57:00,
2013-03-30 22:59:00,44.2,30.8,29.86,SSE,151,0.0,6.0,59,0.00,,---,0.00,VWS V14.00,2013-03-31 02:59:00,
2013-03-30 23:01:00,44.2,30.8,29.86,SSE,165,1.0,6.0,59,0.00,,---,0.00,VWS V14.00,2013-03-31 03:01:00,
2013-03-30 23:02:00,44.2,30.8,29.86,SSE,164,1.0,6.0,59,0.00,,---,0.00,VWS V14.00,2013-03-31 03:02:00,
2013-03-30 23:04:00,44.1,30.7,29.86,SSE,165,2.0,6.0,59,0.00,,---,0.00,VWS V14.00,2013-03-31 03:04:00,
2013-03-30 23:06:00,44.1,30.7,29.86,SSE,165,0.0,6.0,59,0.00,,---,0.00,VWS V14.00,2013-03-31 03:06:00,
2013-03-30 23:07:00,44.1,30.7,29.86,SSE,165,0.0,6.0,59,0.00,,---,0.00,VWS V14.00,2013-03-31 03:07:00,
2013-03-30 23:09:00,44.1,31.1,29.86,SSE,158,0.0,6.0,60,0.00,,---,0.00,VWS V14.00,2013-03-31 03:09:00,
2013-03-30 23:12:00,43.9,30.9,29.86,SSE,165,0.0,6.0,60,0.00,,---,0.00,VWS V14.00,2013-03-31 03:12:00,
2013-03-30 23:13:00,43.9,30.9,29.86,SSE,165,0.0,6.0,60,0.00,,---,0.00,VWS V14.00,2013-03-31 03:13:00,
2013-03-30 23:14:00,43.9,30.9,29.86,SSE,165,0.0,6.0,60,0.00,,---,0.00,VWS V14.00,2013-03-31 03:14:00,
2013-03-30 23:17:00,43.8,30.8,29.86,SSE,165,0.0,6.0,60,0.00,,---,0.00,VWS V14.00,2013-03-31 03:17:00,
2013-03-30 23:18:00,43.8,30.8,29.86,SSE,165,0.0,6.0,60,0.00,,---,0.00,VWS V14.00,2013-03-31 03:18:00,
2013-03-30 23:19:00,43.8,30.8,29.86,SSE,165,0.0,6.0,60,0.00,,---,0.00,VWS V14.00,2013-03-31 03:19:00,
2013-03-30 23:22:00,43.6,30.6,29.86,SSE,165,0.0,6.0,60,0.00,,---,0.00,VWS V14.00,2013-03-31 03:22:00,
2013-03-30 23:23:00,43.6,30.6,29.86,SSE,165,0.0,6.0,60,0.00,,---,0.00,VWS V14.00,2013-03-31 03:23:00,
2013-03-30 23:24:00,43.6,30.6,29.86,SSE,165,0.0,6.0,60,0.00,,---,0.00,VWS V14.00,2013-03-31 03:24:00,
2013-03-30 23:27:00,43.5,30.5,29.86,SSE,165,0.0,6.0,60,0.00,,---,0.00,VWS V14.00,2013-03-31 03:27:00,
2013-03-30 23:28:00,43.5,30.5,29.86,SSE,165,0.0,6.0,60,0.00,,---,0.00,VWS V14.00,2013-03-31 03:28:00,
2013-03-30 23:29:00,43.3,30.4,29.86,SSE,165,0.0,6.0,60,0.00,,---,0.00,VWS V14.00,2013-03-31 03:29:00,
2013-03-30 23:32:00,43.2,30.3,29.85,SSE,165,0.0,6.0,60,0.00,,---,0.00,VWS V14.00,2013-03-31 03:32:00,
2013-03-30 23:33:00,43.2,30.3,29.85,SSE,165,0.0,6.0,60,0.00,,---,0.00,VWS V14.00,2013-03-31 03:33:00,
2013-03-30 23:34:00,43.1,30.6,29.85,SSE,165,0.0,6.0,61,0.00,,---,0.00,VWS V14.00,2013-03-31 03:34:00,
2013-03-30 23:37:00,42.9,30.4,29.85,SSE,165,0.0,6.0,61,0.00,,---,0.00,VWS V14.00,2013-03-31 03:37:00,
2013-03-30 23:38:00,42.9,30.4,29.85,SSE,165,0.0,6.0,61,0.00,,---,0.00,VWS V14.00,2013-03-31 03:38:00,
2013-03-30 23:39:00,42.8,30.3,29.85,SSE,165,0.0,6.0,61,0.00,,---,0.00,VWS V14.00,2013-03-31 03:39:00,
2013-03-30 23:42:00,42.6,30.5,29.85,SSE,165,0.0,6.0,62,0.00,,---,0.00,VWS V14.00,2013-03-31 03:42:00,
2013-03-30 23:43:00,42.6,30.5,29.85,SSE,165,0.0,6.0,62,0.00,,---,0.00,VWS V14.00,2013-03-31 03:43:00,
2013-03-30 23:44:00,42.5,30.4,29.85,SSE,165,0.0,6.0,62,0.00,,---,0.00,VWS V14.00,2013-03-31 03:44:00,
2013-03-30 23:47:00,42.2,30.1,29.85,SSE,165,0.0,6.0,62,0.00,,---,0.00,VWS V14.00,2013-03-31 03:47:00,
2013-03-30 23:48:00,42.2,30.1,29.85,SSE,165,0.0,6.0,62,0.00,,---,0.00,VWS V14.00,2013-03-31 03:48:00,
2013-03-30 23:49:00,42.1,30.0,29.85,SSE,165,0.0,6.0,62,0.00,,---,0.00,VWS V14.00,2013-03-31 03:49:00,
2013-03-30 23:53:00,41.8,29.8,29.85,SSE,165,0.0,6.0,62,0.00,,---,0.00,VWS V14.00,2013-03-31 03:53:00,
2013-03-30 23:54:00,41.6,29.6,29.85,SSE,165,0.0,6.0,62,0.00,,---,0.00,VWS V14.00,2013-03-31 03:54:00,
2013-03-30 23:58:00,41.3,29.3,29.85,SSE,165,0.0,6.0,62,0.00,,---,0.00,VWS V14.00,2013-03-31 03:58:00,
2013-03-30 23:59:00,41.3,29.7,29.85,SSE,158,0.0,6.0,63,0.00,,---,0.00,VWS V14.00,2013-03-31 03:59:00,